Wetterdaten: Donnerstag, 10.05.2012
Datum Zeit Temp. A. Feuchte A. Regen Wind Richtung Richtung Taupunkt Windchill Windben
10.05.2012 00:00 13,5 C 80 % 0,0 l/m 0,0 km/h (0 Bft) N-NO 22 10,1 C 12,2 C 0,0 km/h (0 Bft)
10.05.2012 00:02 13,5 C 80 % 0,0 l/m 0,0 km/h (0 Bft) N-NO 22 10,1 C 12,2 C 0,0 km/h (0 Bft)
10.05.2012 00:04 13,5 C 80 % 0,0 l/m 0,0 km/h (0 Bft) NO 45 10,1 C 12,2 C 0,0 km/h (0 Bft)
10.05.2012 00:06 13,4 C 80 % 0,0 l/m 0,0 km/h (0 Bft) N-NO 22 10,0 C 12,1 C 0,0 km/h (0 Bft)
10.05.2012 00:08 13,5 C 80 % 0,0 l/m 0,0 km/h (0 Bft) N-NO 22 10,1 C 12,1 C 0,0 km/h (0 Bft)
10.05.2012 00:10 13,5 C 80 % 0,0 l/m 0,0 km/h (0 Bft) N-NO 22 10,1 C 12,0 C 0,0 km/h (0 Bft)
10.05.2012 00:12 13,3 C 80 % 0,0 l/m 0,0 km/h (0 Bft) N-NO 22 9,9 C 12,0 C 0,0 km/h (0 Bft)
10.05.2012 00:14 13,3 C 80 % 0,0 l/m 0,0 km/h (0 Bft) N-NO 22 9,9 C 11,9 C 0,0 km/h (0 Bft)
10.05.2012 00:16 13,3 C 80 % 0,0 l/m 0,2 km/h (0 Bft) O-SO 112 9,9 C 11,9 C 2,3 km/h (1 Bft)
10.05.2012 00:18 13,2 C 80 % 0,0 l/m 0,2 km/h (0 Bft) O-NO 67 9,8 C 11,8 C 2,3 km/h (1 Bft)
10.05.2012 00:20 13,3 C 80 % 0,0 l/m 0,5 km/h (0 Bft) NO 45 9,9 C 11,9 C 2,1 km/h (1 Bft)
10.05.2012 00:22 13,3 C 80 % 0,0 l/m 0,5 km/h (0 Bft) NO 45 9,9 C 11,9 C 2,1 km/h (1 Bft)
10.05.2012 00:24 13,3 C 80 % 0,0 l/m 0,5 km/h (0 Bft) NO 45 9,9 C 12,0 C 0,0 km/h (0 Bft)
10.05.2012 00:26 13,3 C 80 % 0,0 l/m 0,5 km/h (0 Bft) N-NO 22 9,9 C 12,0 C 0,0 km/h (0 Bft)
10.05.2012 00:28 13,2 C 80 % 0,0 l/m 0,3 km/h (0 Bft) O-NO 67 9,8 C 12,0 C 0,0 km/h (0 Bft)
10.05.2012 00:30 13,2 C 80 % 0,0 l/m 0,2 km/h (0 Bft) SO 135 9,8 C 12,0 C 0,0 km/h (0 Bft)
10.05.2012 00:32 13,2 C 80 % 0,0 l/m 0,0 km/h (0 Bft) S-SO 157 9,8 C 12,0 C 0,0 km/h (0 Bft)
10.05.2012 00:34 13,2 C 80 % 0,0 l/m 0,0 km/h (0 Bft) S 180 9,8 C 12,0 C 0,0 km/h (0 Bft)
10.05.2012 00:36 13,2 C 80 % 0,0 l/m 0,0 km/h (0 Bft) N-NW 337 9,8 C 12,0 C 0,0 km/h (0 Bft)
10.05.2012 00:38 13,2 C 80 % 0,0 l/m 0,0 km/h (0 Bft) N-NO 22 9,8 C 12,0 C 0,0 km/h (0 Bft)
10.05.2012 00:40 13,2 C 80 % 0,0 l/m 0,0 km/h (0 Bft) SO 135 9,8 C 12,1 C 0,0 km/h (0 Bft)
10.05.2012 00:42 13,2 C 80 % 0,0 l/m 0,0 km/h (0 Bft) N-NW 337 9,8 C 12,1 C 0,0 km/h (0 Bft)
10.05.2012 00:44 13,2 C 80 % 0,0 l/m 0,0 km/h (0 Bft) W-NW 292 9,8 C 12,1 C 0,0 km/h (0 Bft)
10.05.2012 00:46 13,2 C 80 % 0,0 l/m 0,0 km/h (0 Bft) N-NO 22 9,8 C 12,2 C 0,0 km/h (0 Bft)
10.05.2012 00:48 13,2 C 80 % 0,0 l/m 0,2 km/h (0 Bft) N 360 9,8 C 12,1 C 2,4 km/h (1 Bft)
10.05.2012 00:50 13,1 C 80 % 0,0 l/m 0,3 km/h (0 Bft) N-NW 337 9,7 C 12,1 C 2,4 km/h (1 Bft)
10.05.2012 00:52 13,1 C 80 % 0,0 l/m 0,3 km/h (0 Bft) NO 45 9,7 C 12,1 C 1,8 km/h (1 Bft)
10.05.2012 00:54 13,1 C 80 % 0,0 l/m 0,3 km/h (0 Bft) S 180 9,7 C 12,1 C 1,8 km/h (1 Bft)
10.05.2012 00:56 13,1 C 80 % 0,0 l/m 0,3 km/h (0 Bft) S 180 9,7 C 12,1 C 1,8 km/h (1 Bft)
10.05.2012 00:58 13,1 C 80 % 0,0 l/m 0,3 km/h (0 Bft) S 180 9,7 C 12,1 C 0,0 km/h (0 Bft)
10.05.2012 01:00 13,1 C 80 % 0,0 l/m 0,2 km/h (0 Bft) SO 135 9,7 C 12,1 C 0,0 km/h (0 Bft)
10.05.2012 01:02 13,1 C 80 % 0,0 l/m 0,0 km/h (0 Bft) O-SO 112 9,7 C 12,1 C 0,0 km/h (0 Bft)
10.05.2012 01:04 13,1 C 80 % 0,0 l/m 0,0 km/h (0 Bft) S 180 9,7 C 12,0 C 0,0 km/h (0 Bft)
10.05.2012 01:06 13,1 C 80 % 0,0 l/m 0,0 km/h (0 Bft) W-SW 247 9,7 C 12,0 C 0,0 km/h (0 Bft)
10.05.2012 01:08 13,0 C 80 % 0,0 l/m 0,0 km/h (0 Bft) S 180 9,6 C 12,0 C 0,0 km/h (0 Bft)
10.05.2012 01:10 13,1 C 81 % 0,0 l/m 0,0 km/h (0 Bft) SO 135 9,9 C 12,0 C 0,0 km/h (0 Bft)
10.05.2012 01:12 13,0 C 81 % 0,0 l/m 0,0 km/h (0 Bft) S 180 9,8 C 12,0 C 0,0 km/h (0 Bft)
10.05.2012 01:14 13,1 C 81 % 0,0 l/m 0,0 km/h (0 Bft) S-SO 157 9,9 C 12,0 C 0,0 km/h (0 Bft)
10.05.2012 01:16 13,0 C 81 % 0,0 l/m 0,0 km/h (0 Bft) S 180 9,8 C 12,0 C 0,0 km/h (0 Bft)
10.05.2012 01:18 13,1 C 81 % 0,0 l/m 0,0 km/h (0 Bft) S 180 9,9 C 12,0 C 0,0 km/h (0 Bft)
10.05.2012 01:20 13,1 C 81 % 0,0 l/m 0,0 km/h (0 Bft) S 180 9,9 C 12,0 C 0,0 km/h (0 Bft)
10.05.2012 01:22 13,1 C 81 % 0,0 l/m 0,0 km/h (0 Bft) S 180 9,9 C 12,0 C 0,0 km/h (0 Bft)
10.05.2012 01:24 13,1 C 81 % 0,0 l/m 0,0 km/h (0 Bft) NO 45 9,9 C 12,0 C 0,0 km/h (0 Bft)
10.05.2012 01:26 13,1 C 81 % 0,0 l/m 0,0 km/h (0 Bft) N 360 9,9 C 12,0 C 0,0 km/h (0 Bft)
10.05.2012 01:28 13,1 C 81 % 0,0 l/m 0,0 km/h (0 Bft) S 180 9,9 C 12,0 C 0,0 km/h (0 Bft)
10.05.2012 01:30 13,1 C 81 % 0,0 l/m 0,0 km/h (0 Bft) N-NW 337 9,9 C 12,0 C 0,0 km/h (0 Bft)
10.05.2012 01:32 13,1 C 81 % 0,0 l/m 0,0 km/h (0 Bft) NO 45 9,9 C 12,0 C 0,0 km/h (0 Bft)
10.05.2012 01:34 13,1 C 81 % 0,0 l/m 0,0 km/h (0 Bft) O-NO 67 9,9 C 12,0 C 0,0 km/h (0 Bft)
10.05.2012 01:36 13,1 C 81 % 0,0 l/m 0,0 km/h (0 Bft) S 180 9,9 C 12,0 C 0,0 km/h (0 Bft)
10.05.2012 01:38 13,1 C 81 % 0,0 l/m 0,0 km/h (0 Bft) S 180 9,9 C 12,0 C 0,0 km/h (0 Bft)
10.05.2012 01:40 13,0 C 81 % 0,0 l/m 0,0 km/h (0 Bft) S 180 9,8 C 12,0 C 0,0 km/h (0 Bft)
10.05.2012 01:42 13,1 C 81 % 0,0 l/m 0,0 km/h (0 Bft) S 180 9,9 C 12,0 C 0,0 km/h (0 Bft)
10.05.2012 01:44 13,0 C 81 % 0,0 l/m 0,0 km/h (0 Bft) S-SW 202 9,8 C 12,0 C 0,0 km/h (0 Bft)
10.05.2012 01:46 13,1 C 80 % 0,0 l/m 0,0 km/h (0 Bft) S-SW 202 9,7 C 12,0 C 0,0 km/h (0 Bft)
10.05.2012 01:48 13,1 C 80 % 0,0 l/m 0,0 km/h (0 Bft) SO 135 9,7 C 12,0 C 0,0 km/h (0 Bft)
10.05.2012 01:50 13,1 C 80 % 0,0 l/m 0,0 km/h (0 Bft) O 90 9,7 C 12,0 C 0,0 km/h (0 Bft)
10.05.2012 01:52 13,1 C 80 % 0,0 l/m 0,0 km/h (0 Bft) N 360 9,7 C 12,0 C 0,0 km/h (0 Bft)
10.05.2012 01:54 13,1 C 80 % 0,0 l/m 0,0 km/h (0 Bft) SO 135 9,7 C 12,0 C 0,0 km/h (0 Bft)
10.05.2012 01:56 13,1 C 80 % 0,0 l/m 0,0 km/h (0 Bft) O-SO 112 9,7 C 12,0 C 0,0 km/h (0 Bft)
10.05.2012 01:58 13,0 C 80 % 0,0 l/m 0,0 km/h (0 Bft) NO 45 9,6 C 12,0 C 0,0 km/h (0 Bft)
10.05.2012 02:00 12,9 C 80 % 0,0 l/m 0,0 km/h (0 Bft) S-SO 157 9,5 C 12,0 C 0,0 km/h (0 Bft)
10.05.2012 02:02 12,9 C 80 % 0,0 l/m 0,0 km/h (0 Bft) NO 45 9,5 C 12,0 C 0,0 km/h (0 Bft)
10.05.2012 02:04 13,0 C 80 % 0,0 l/m 0,0 km/h (0 Bft) S-SO 157 9,6 C 12,0 C 0,0 km/h (0 Bft)
10.05.2012 02:06 12,9 C 80 % 0,0 l/m 0,0 km/h (0 Bft) NO 45 9,5 C 12,0 C 0,0 km/h (0 Bft)
10.05.2012 02:08 12,9 C 80 % 0,0 l/m 0,0 km/h (0 Bft) NO 45 9,5 C 12,0 C 0,0 km/h (0 Bft)
10.05.2012 02:10 12,9 C 80 % 0,0 l/m 0,0 km/h (0 Bft) O-SO 112 9,5 C 12,0 C 0,0 km/h (0 Bft)
10.05.2012 02:12 12,9 C 80 % 0,0 l/m 0,0 km/h (0 Bft) SO 135 9,5 C 11,9 C 0,0 km/h (0 Bft)
10.05.2012 02:14 12,9 C 80 % 0,0 l/m 0,0 km/h (0 Bft) O-SO 112 9,5 C 11,9 C 0,0 km/h (0 Bft)
10.05.2012 02:16 12,8 C 80 % 0,0 l/m 0,2 km/h (0 Bft) SO 135 9,4 C 11,9 C 1,8 km/h (1 Bft)
10.05.2012 02:18 12,8 C 80 % 0,0 l/m 0,2 km/h (0 Bft) O-NO 67 9,4 C 11,8 C 1,8 km/h (1 Bft)
10.05.2012 02:20 12,8 C 80 % 0,0 l/m 0,2 km/h (0 Bft) O 90 9,4 C 11,8 C 0,0 km/h (0 Bft)
10.05.2012 02:22 12,8 C 80 % 0,0 l/m 0,2 km/h (0 Bft) S-SW 202 9,4 C 11,7 C 0,0 km/h (0 Bft)
10.05.2012 02:24 12,8 C 80 % 0,0 l/m 0,2 km/h (0 Bft) O-SO 112 9,4 C 11,7 C 2,4 km/h (1 Bft)
10.05.2012 02:26 12,7 C 80 % 0,0 l/m 0,3 km/h (0 Bft) NO 45 9,3 C 11,7 C 2,4 km/h (1 Bft)
10.05.2012 02:28 12,7 C 80 % 0,0 l/m 0,2 km/h (0 Bft) S-SO 157 9,3 C 11,7 C 0,0 km/h (0 Bft)
10.05.2012 02:30 12,7 C 80 % 0,0 l/m 0,2 km/h (0 Bft) S-SO 157 9,3 C 11,7 C 0,0 km/h (0 Bft)
10.05.2012 02:32 12,7 C 80 % 0,0 l/m 0,2 km/h (0 Bft) S 180 9,3 C 11,8 C 0,0 km/h (0 Bft)
10.05.2012 02:34 12,7 C 80 % 0,0 l/m 0,2 km/h (0 Bft) S-SO 157 9,3 C 11,8 C 0,0 km/h (0 Bft)
10.05.2012 02:36 12,7 C 80 % 0,0 l/m 0,0 km/h (0 Bft) W 270 9,3 C 11,9 C 0,0 km/h (0 Bft)
10.05.2012 02:38 12,7 C 80 % 0,0 l/m 0,2 km/h (0 Bft) NO 45 9,3 C 12,0 C 0,0 km/h (0 Bft)
10.05.2012 02:40 12,8 C 80 % 0,0 l/m 0,2 km/h (0 Bft) W-NW 292 9,4 C 12,0 C 0,0 km/h (0 Bft)
10.05.2012 02:42 12,9 C 80 % 0,0 l/m 0,2 km/h (0 Bft) NO 45 9,5 C 12,0 C 0,0 km/h (0 Bft)
10.05.2012 02:44 12,8 C 80 % 0,0 l/m 0,2 km/h (0 Bft) S 180 9,4 C 12,0 C 0,0 km/h (0 Bft)
10.05.2012 02:46 12,9 C 80 % 0,0 l/m 0,2 km/h (0 Bft) S 180 9,5 C 12,1 C 3,2 km/h (1 Bft)
10.05.2012 02:48 12,8 C 80 % 0,0 l/m 0,2 km/h (0 Bft) NO 45 9,4 C 12,1 C 0,0 km/h (0 Bft)
10.05.2012 02:50 12,9 C 80 % 0,0 l/m 0,2 km/h (0 Bft) S-SO 157 9,5 C 12,1 C 0,0 km/h (0 Bft)
10.05.2012 02:52 12,9 C 80 % 0,0 l/m 0,0 km/h (0 Bft) S 180 9,5 C 12,1 C 0,0 km/h (0 Bft)
10.05.2012 02:54 12,8 C 80 % 0,0 l/m 0,0 km/h (0 Bft) S 180 9,4 C 12,0 C 0,0 km/h (0 Bft)
10.05.2012 02:56 12,8 C 80 % 0,0 l/m 0,2 km/h (0 Bft) O 90 9,4 C 12,0 C 2,7 km/h (1 Bft)
10.05.2012 02:58 12,8 C 80 % 0,0 l/m 0,5 km/h (0 Bft) S 180 9,4 C 12,0 C 2,7 km/h (1 Bft)
10.05.2012 03:00 12,8 C 80 % 0,0 l/m 0,6 km/h (0 Bft) N 360 9,4 C 12,0 C 1,9 km/h (1 Bft)
10.05.2012 03:02 12,7 C 79 % 0,0 l/m 0,6 km/h (0 Bft) S 180 9,2 C 11,9 C 1,9 km/h (1 Bft)
10.05.2012 03:04 12,7 C 79 % 0,0 l/m 0,6 km/h (0 Bft) W-SW 247 9,2 C 11,9 C 0,0 km/h (0 Bft)
10.05.2012 03:06 12,7 C 79 % 0,0 l/m 0,6 km/h (0 Bft) N 360 9,2 C 11,7 C 4,3 km/h (1 Bft)
10.05.2012 03:08 12,5 C 79 % 0,0 l/m 0,3 km/h (0 Bft) S-SO 157 9,0 C 11,7 C 0,0 km/h (0 Bft)
10.05.2012 03:10 12,4 C 79 % 0,0 l/m 0,2 km/h (0 Bft) S 180 8,9 C 11,6 C 0,0 km/h (0 Bft)
10.05.2012 03:12 12,4 C 79 % 0,0 l/m 0,2 km/h (0 Bft) SO 135 8,9 C 11,5 C 0,0 km/h (0 Bft)
10.05.2012 03:14 12,5 C 79 % 0,0 l/m 0,2 km/h (0 Bft) N-NO 22 9,0 C 11,5 C 0,0 km/h (0 Bft)
10.05.2012 03:16 12,5 C 79 % 0,0 l/m 0,2 km/h (0 Bft) N-NO 22 9,0 C 11,5 C 0,0 km/h (0 Bft)
10.05.2012 03:18 12,4 C 79 % 0,0 l/m 0,2 km/h (0 Bft) O 90 8,9 C 11,5 C 0,0 km/h (0 Bft)
10.05.2012 03:20 12,4 C 80 % 0,0 l/m 0,2 km/h (0 Bft) SO 135 9,0 C 11,5 C 0,0 km/h (0 Bft)
10.05.2012 03:22 12,5 C 80 % 0,0 l/m 0,2 km/h (0 Bft) N 360 9,1 C 11,5 C 0,0 km/h (0 Bft)
10.05.2012 03:24 12,4 C 80 % 0,0 l/m 0,2 km/h (0 Bft) O-NO 67 9,0 C 11,6 C 0,0 km/h (0 Bft)
10.05.2012 03:26 12,4 C 80 % 0,0 l/m 0,2 km/h (0 Bft) N 360 9,0 C 11,6 C 0,0 km/h (0 Bft)
10.05.2012 03:28 12,5 C 80 % 0,0 l/m 0,0 km/h (0 Bft) N-NW 337 9,1 C 11,7 C 0,0 km/h (0 Bft)
10.05.2012 03:30 12,5 C 79 % 0,0 l/m 0,0 km/h (0 Bft) S 180 9,0 C 11,7 C 0,0 km/h (0 Bft)
10.05.2012 03:32 12,5 C 79 % 0,0 l/m 0,2 km/h (0 Bft) S 180 9,0 C 11,7 C 1,6 km/h (1 Bft)
10.05.2012 03:34 12,4 C 79 % 0,0 l/m 0,2 km/h (0 Bft) W-NW 292 8,9 C 11,7 C 1,8 km/h (1 Bft)
10.05.2012 03:36 12,4 C 79 % 0,0 l/m 0,2 km/h (0 Bft) N-NO 22 8,9 C 11,7 C 1,8 km/h (1 Bft)
10.05.2012 03:38 12,5 C 79 % 0,0 l/m 0,2 km/h (0 Bft) W-NW 292 9,0 C 11,6 C 0,0 km/h (0 Bft)
10.05.2012 03:40 12,4 C 79 % 0,0 l/m 0,3 km/h (0 Bft) N-NO 22 8,9 C 11,5 C 2,1 km/h (1 Bft)
10.05.2012 03:42 12,4 C 79 % 0,0 l/m 0,3 km/h (0 Bft) S-SO 157 8,9 C 11,5 C 2,1 km/h (1 Bft)
10.05.2012 03:44 12,3 C 79 % 0,0 l/m 0,3 km/h (0 Bft) O-NO 67 8,8 C 11,5 C 2,1 km/h (1 Bft)
10.05.2012 03:46 12,3 C 79 % 0,0 l/m 0,2 km/h (0 Bft) S-SO 157 8,8 C 11,5 C 0,0 km/h (0 Bft)
10.05.2012 03:48 12,3 C 79 % 0,0 l/m 0,3 km/h (0 Bft) SO 135 8,8 C 11,4 C 1,9 km/h (1 Bft)
10.05.2012 03:50 12,3 C 79 % 0,0 l/m 0,3 km/h (0 Bft) S-SW 202 8,8 C 11,4 C 1,9 km/h (1 Bft)
10.05.2012 03:52 12,2 C 79 % 0,0 l/m 0,2 km/h (0 Bft) S 180 8,7 C 11,4 C 0,0 km/h (0 Bft)
10.05.2012 03:54 12,3 C 79 % 0,0 l/m 0,2 km/h (0 Bft) SW 225 8,8 C 11,3 C 0,0 km/h (0 Bft)
10.05.2012 03:56 12,3 C 79 % 0,0 l/m 0,2 km/h (0 Bft) SW 225 8,8 C 11,3 C 1,8 km/h (1 Bft)
10.05.2012 03:58 12,3 C 79 % 0,0 l/m 0,2 km/h (0 Bft) N-NO 22 8,8 C 11,3 C 1,8 km/h (1 Bft)
10.05.2012 04:00 12,2 C 79 % 0,0 l/m 0,2 km/h (0 Bft) S-SW 202 8,7 C 11,2 C 0,0 km/h (0 Bft)
10.05.2012 04:02 12,1 C 79 % 0,0 l/m 0,5 km/h (0 Bft) SW 225 8,6 C 11,0 C 3,1 km/h (1 Bft)
10.05.2012 04:04 12,0 C 79 % 0,0 l/m 0,5 km/h (0 Bft) S-SO 157 8,5 C 11,0 C 3,1 km/h (1 Bft)
10.05.2012 04:06 12,1 C 79 % 0,0 l/m 0,3 km/h (0 Bft) O-SO 112 8,6 C 10,9 C 0,0 km/h (0 Bft)
10.05.2012 04:08 12,0 C 79 % 0,0 l/m 0,3 km/h (0 Bft) O 90 8,5 C 10,8 C 0,0 km/h (0 Bft)
10.05.2012 04:10 11,9 C 79 % 0,0 l/m 0,3 km/h (0 Bft) NO 45 8,4 C 10,7 C 0,0 km/h (0 Bft)
10.05.2012 04:12 11,9 C 79 % 0,0 l/m 0,3 km/h (0 Bft) S-SW 202 8,4 C 10,5 C 0,0 km/h (0 Bft)
10.05.2012 04:14 11,9 C 79 % 0,0 l/m 0,0 km/h (0 Bft) SO 135 8,4 C 10,5 C 0,0 km/h (0 Bft)
10.05.2012 04:16 11,7 C 79 % 0,0 l/m 0,2 km/h (0 Bft) N-NO 22 8,2 C 10,3 C 0,0 km/h (0 Bft)
10.05.2012 04:18 11,7 C 79 % 0,0 l/m 0,2 km/h (0 Bft) NO 45 8,2 C 10,3 C 0,0 km/h (0 Bft)
10.05.2012 04:20 11,6 C 79 % 0,0 l/m 0,2 km/h (0 Bft) S 180 8,1 C 10,3 C 0,0 km/h (0 Bft)
10.05.2012 04:22 11,6 C 79 % 0,0 l/m 0,2 km/h (0 Bft) S-SO 157 8,1 C 10,2 C 0,0 km/h (0 Bft)
10.05.2012 04:24 11,6 C 79 % 0,0 l/m 0,2 km/h (0 Bft) S 180 8,1 C 10,1 C 0,0 km/h (0 Bft)
10.05.2012 04:26 11,6 C 79 % 0,0 l/m 0,2 km/h (0 Bft) W 270 8,1 C 10,1 C 0,0 km/h (0 Bft)
10.05.2012 04:28 11,5 C 79 % 0,0 l/m 0,0 km/h (0 Bft) S-SW 202 8,0 C 9,9 C 0,0 km/h (0 Bft)
10.05.2012 04:30 11,5 C 79 % 0,0 l/m 0,0 km/h (0 Bft) W-NW 292 8,0 C 9,8 C 0,0 km/h (0 Bft)
10.05.2012 04:32 11,5 C 79 % 0,0 l/m 0,0 km/h (0 Bft) S-SW 202 8,0 C 9,7 C 0,0 km/h (0 Bft)
10.05.2012 04:34 11,3 C 79 % 0,0 l/m 0,0 km/h (0 Bft) NW 315 7,8 C 9,6 C 0,0 km/h (0 Bft)
10.05.2012 04:36 11,3 C 79 % 0,0 l/m 0,0 km/h (0 Bft) W-SW 247 7,8 C 9,5 C 0,0 km/h (0 Bft)
10.05.2012 04:38 11,2 C 80 % 0,0 l/m 0,0 km/h (0 Bft) S-SO 157 7,9 C 9,3 C 0,0 km/h (0 Bft)
10.05.2012 04:40 11,1 C 80 % 0,0 l/m 0,0 km/h (0 Bft) W-SW 247 7,8 C 9,2 C 1,6 km/h (1 Bft)
10.05.2012 04:42 11,0 C 80 % 0,0 l/m 0,0 km/h (0 Bft) S 180 7,7 C 9,1 C 1,6 km/h (1 Bft)
10.05.2012 04:44 11,1 C 80 % 0,0 l/m 0,2 km/h (0 Bft) NW 315 7,8 C 9,1 C 0,0 km/h (0 Bft)
10.05.2012 04:46 10,9 C 80 % 0,0 l/m 0,2 km/h (0 Bft) S-SW 202 7,6 C 9,0 C 0,0 km/h (0 Bft)
10.05.2012 04:48 10,9 C 80 % 0,0 l/m 0,2 km/h (0 Bft) S 180 7,6 C 9,0 C 0,0 km/h (0 Bft)
10.05.2012 04:50 10,8 C 80 % 0,0 l/m 0,2 km/h (0 Bft) S-SW 202 7,5 C 9,0 C 0,0 km/h (0 Bft)
10.05.2012 04:52 10,8 C 80 % 0,0 l/m 0,2 km/h (0 Bft) SW 225 7,5 C 9,1 C 0,0 km/h (0 Bft)
10.05.2012 04:54 10,9 C 81 % 0,0 l/m 0,2 km/h (0 Bft) N 360 7,8 C 9,2 C 0,0 km/h (0 Bft)
10.05.2012 04:56 10,9 C 81 % 0,0 l/m 0,2 km/h (0 Bft) S 180 7,8 C 9,2 C 1,6 km/h (1 Bft)
10.05.2012 04:58 10,9 C 81 % 0,0 l/m 0,2 km/h (0 Bft) NO 45 7,8 C 9,2 C 1,6 km/h (1 Bft)
10.05.2012 05:00 10,9 C 81 % 0,0 l/m 0,2 km/h (0 Bft) NO 45 7,8 C 9,3 C 1,6 km/h (1 Bft)
10.05.2012 05:02 10,9 C 81 % 0,0 l/m 0,2 km/h (0 Bft) O-SO 112 7,8 C 9,3 C 1,6 km/h (1 Bft)
10.05.2012 05:04 10,9 C 81 % 0,0 l/m 0,2 km/h (0 Bft) N-NO 22 7,8 C 9,4 C 0,0 km/h (0 Bft)
10.05.2012 05:06 10,9 C 81 % 0,0 l/m 0,2 km/h (0 Bft) NO 45 7,8 C 9,4 C 0,0 km/h (0 Bft)
10.05.2012 05:08 10,9 C 81 % 0,0 l/m 0,2 km/h (0 Bft) O 90 7,8 C 9,4 C 0,0 km/h (0 Bft)
10.05.2012 05:10 10,9 C 81 % 0,0 l/m 0,2 km/h (0 Bft) S 180 7,8 C 9,4 C 0,0 km/h (0 Bft)
10.05.2012 05:12 10,9 C 81 % 0,0 l/m 0,3 km/h (0 Bft) S 180 7,8 C 9,4 C 3,2 km/h (1 Bft)
10.05.2012 05:14 11,0 C 81 % 0,0 l/m 0,5 km/h (0 Bft) S 180 7,9 C 9,4 C 3,2 km/h (1 Bft)
10.05.2012 05:16 10,9 C 81 % 0,0 l/m 0,5 km/h (0 Bft) N 360 7,8 C 9,5 C 1,8 km/h (1 Bft)
10.05.2012 05:18 10,9 C 81 % 0,0 l/m 1,0 km/h (0 Bft) NW 315 7,8 C 9,4 C 2,7 km/h (1 Bft)
10.05.2012 05:20 10,9 C 81 % 0,0 l/m 1,3 km/h (1 Bft) N-NO 22 7,8 C 9,5 C 3,4 km/h (1 Bft)
10.05.2012 05:22 10,9 C 81 % 0,0 l/m 1,3 km/h (1 Bft) SO 135 7,8 C 9,5 C 3,4 km/h (1 Bft)
10.05.2012 05:24 10,9 C 81 % 0,0 l/m 2,1 km/h (1 Bft) SO 135 7,8 C 9,5 C 10,0 km/h (2 Bft)
10.05.2012 05:26 10,9 C 81 % 0,0 l/m 2,4 km/h (1 Bft) S 180 7,8 C 9,6 C 10,0 km/h (2 Bft)
10.05.2012 05:28 11,0 C 81 % 0,0 l/m 2,7 km/h (1 Bft) N-NW 337 7,9 C 9,6 C 3,7 km/h (1 Bft)
10.05.2012 05:30 10,9 C 81 % 0,0 l/m 2,7 km/h (1 Bft) O 90 7,8 C 9,7 C 2,9 km/h (1 Bft)
10.05.2012 05:32 10,9 C 81 % 0,0 l/m 2,7 km/h (1 Bft) NO 45 7,8 C 9,7 C 3,1 km/h (1 Bft)
10.05.2012 05:34 10,8 C 81 % 0,0 l/m 2,7 km/h (1 Bft) O 90 7,7 C 9,8 C 3,1 km/h (1 Bft)
10.05.2012 05:36 10,9 C 81 % 0,0 l/m 2,7 km/h (1 Bft) O-SO 112 7,8 C 9,9 C 5,1 km/h (1 Bft)
10.05.2012 05:38 10,9 C 81 % 0,0 l/m 3,1 km/h (1 Bft) O-SO 112 7,8 C 10,0 C 5,5 km/h (1 Bft)
10.05.2012 05:40 11,1 C 82 % 0,0 l/m 3,1 km/h (1 Bft) N-NW 337 8,1 C 10,2 C 5,5 km/h (1 Bft)
10.05.2012 05:42 11,1 C 82 % 0,0 l/m 3,1 km/h (1 Bft) N-NW 337 8,1 C 10,3 C 3,4 km/h (1 Bft)
10.05.2012 05:44 11,1 C 82 % 0,0 l/m 3,2 km/h (1 Bft) N-NO 22 8,1 C 10,3 C 3,4 km/h (1 Bft)
10.05.2012 05:46 11,2 C 81 % 0,0 l/m 2,7 km/h (1 Bft) SO 135 8,1 C 10,3 C 4,0 km/h (1 Bft)
10.05.2012 05:48 11,1 C 81 % 0,0 l/m 2,6 km/h (1 Bft) SO 135 8,0 C 10,3 C 4,0 km/h (1 Bft)
10.05.2012 05:50 11,1 C 81 % 0,0 l/m 1,8 km/h (1 Bft) S 180 8,0 C 10,3 C 3,7 km/h (1 Bft)
10.05.2012 05:52 11,1 C 81 % 0,0 l/m 1,4 km/h (1 Bft) N-NW 337 8,0 C 10,3 C 1,8 km/h (1 Bft)
10.05.2012 05:54 11,1 C 81 % 0,0 l/m 1,1 km/h (1 Bft) N 360 8,0 C 10,3 C 1,8 km/h (1 Bft)
10.05.2012 05:56 11,1 C 81 % 0,0 l/m 1,0 km/h (0 Bft) N-NO 22 8,0 C 10,2 C 0,0 km/h (0 Bft)
10.05.2012 05:58 11,0 C 81 % 0,0 l/m 0,5 km/h (0 Bft) NO 45 7,9 C 10,1 C 0,0 km/h (0 Bft)
10.05.2012 06:00 11,1 C 81 % 0,0 l/m 0,2 km/h (0 Bft) N-NW 337 8,0 C 10,0 C 0,0 km/h (0 Bft)
10.05.2012 06:02 11,0 C 81 % 0,0 l/m 0,2 km/h (0 Bft) S 180 7,9 C 10,1 C 0,0 km/h (0 Bft)
10.05.2012 06:04 11,0 C 81 % 0,0 l/m 0,3 km/h (0 Bft) S-SO 157 7,9 C 10,0 C 0,0 km/h (0 Bft)
10.05.2012 06:06 10,9 C 81 % 0,0 l/m 0,5 km/h (0 Bft) W 270 7,8 C 10,0 C 0,0 km/h (0 Bft)
10.05.2012 06:08 11,1 C 81 % 0,0 l/m 0,8 km/h (0 Bft) S-SW 202 8,0 C 10,0 C 4,0 km/h (1 Bft)
10.05.2012 06:10 11,1 C 81 % 0,0 l/m 1,0 km/h (0 Bft) S-SO 157 8,0 C 10,0 C 4,0 km/h (1 Bft)
10.05.2012 06:12 10,9 C 81 % 0,0 l/m 1,1 km/h (1 Bft) W-SW 247 7,8 C 10,0 C 0,0 km/h (0 Bft)
10.05.2012 06:14 11,0 C 81 % 0,0 l/m 0,8 km/h (0 Bft) O 90 7,9 C 9,9 C 0,0 km/h (0 Bft)
10.05.2012 06:16 10,9 C 81 % 0,0 l/m 0,8 km/h (0 Bft) N-NO 22 7,8 C 9,9 C 0,0 km/h (0 Bft)
10.05.2012 06:18 11,1 C 81 % 0,0 l/m 0,6 km/h (0 Bft) N 360 8,0 C 9,9 C 1,6 km/h (1 Bft)
10.05.2012 06:20 11,7 C 81 % 0,0 l/m 0,3 km/h (0 Bft) N 360 8,5 C 10,0 C 1,6 km/h (1 Bft)
10.05.2012 06:22 11,8 C 81 % 0,0 l/m 0,2 km/h (0 Bft) N 360 8,6 C 10,1 C 0,0 km/h (0 Bft)
10.05.2012 06:24 12,1 C 81 % 0,0 l/m 0,2 km/h (0 Bft) W-SW 247 8,9 C 10,3 C 0,0 km/h (0 Bft)
10.05.2012 06:26 12,5 C 80 % 0,0 l/m 0,3 km/h (0 Bft) NO 45 9,1 C 10,5 C 0,0 km/h (0 Bft)
10.05.2012 06:28 12,8 C 78 % 0,0 l/m 0,3 km/h (0 Bft) N 360 9,1 C 11,0 C 1,6 km/h (1 Bft)
10.05.2012 06:30 13,0 C 78 % 0,0 l/m 0,2 km/h (0 Bft) N 360 9,3 C 11,6 C 1,6 km/h (1 Bft)
10.05.2012 06:32 13,3 C 78 % 0,0 l/m 0,3 km/h (0 Bft) N-NW 337 9,5 C 12,2 C 2,4 km/h (1 Bft)
10.05.2012 06:34 13,7 C 78 % 0,0 l/m 0,3 km/h (0 Bft) N-NW 337 9,9 C 12,8 C 2,4 km/h (1 Bft)
10.05.2012 06:36 13,9 C 77 % 0,0 l/m 0,2 km/h (0 Bft) SW 225 9,9 C 13,2 C 0,0 km/h (0 Bft)
10.05.2012 06:38 14,5 C 76 % 0,0 l/m 0,2 km/h (0 Bft) W-SW 247 10,3 C 13,5 C 0,0 km/h (0 Bft)
10.05.2012 06:40 14,7 C 74 % 0,0 l/m 0,2 km/h (0 Bft) W-SW 247 10,1 C 13,9 C 0,0 km/h (0 Bft)
10.05.2012 06:42 14,9 C 74 % 0,0 l/m 0,2 km/h (0 Bft) W 270 10,3 C 14,3 C 0,0 km/h (0 Bft)
10.05.2012 06:44 15,0 C 73 % 0,0 l/m 0,0 km/h (0 Bft) W-SW 247 10,2 C 14,6 C 0,0 km/h (0 Bft)
10.05.2012 06:46 15,3 C 72 % 0,0 l/m 0,0 km/h (0 Bft) NO 45 10,3 C 15,0 C 0,0 km/h (0 Bft)
10.05.2012 06:48 15,6 C 71 % 0,0 l/m 0,0 km/h (0 Bft) N 360 10,4 C 15,4 C 0,0 km/h (0 Bft)
10.05.2012 06:50 15,8 C 71 % 0,0 l/m 0,0 km/h (0 Bft) N 360 10,6 C 15,8 C 2,1 km/h (1 Bft)
10.05.2012 06:52 15,6 C 70 % 0,0 l/m 0,3 km/h (0 Bft) S-SO 157 10,1 C 16,2 C 2,1 km/h (1 Bft)
10.05.2012 06:54 15,2 C 70 % 0,0 l/m 0,3 km/h (0 Bft) N-NW 337 9,8 C 16,4 C 1,8 km/h (1 Bft)
10.05.2012 06:56 15,2 C 70 % 0,0 l/m 0,3 km/h (0 Bft) NW 315 9,8 C 16,7 C 1,9 km/h (1 Bft)
10.05.2012 06:58 15,1 C 69 % 0,0 l/m 0,3 km/h (0 Bft) W 270 9,5 C 16,8 C 1,9 km/h (1 Bft)
10.05.2012 07:00 15,5 C 69 % 0,0 l/m 0,3 km/h (0 Bft) N 360 9,8 C 17,0 C 0,0 km/h (0 Bft)
10.05.2012 07:02 16,1 C 69 % 0,0 l/m 0,3 km/h (0 Bft) N-NW 337 10,4 C 17,5 C 2,1 km/h (1 Bft)
10.05.2012 07:04 16,5 C 69 % 0,0 l/m 0,5 km/h (0 Bft) N 360 10,8 C 17,8 C 2,1 km/h (1 Bft)
10.05.2012 07:06 16,8 C 68 % 0,0 l/m 0,6 km/h (0 Bft) W-SW 247 10,9 C 17,8 C 1,9 km/h (1 Bft)
10.05.2012 07:08 17,7 C 67 % 0,0 l/m 0,5 km/h (0 Bft) W-NW 292 11,5 C 18,1 C 1,9 km/h (1 Bft)
10.05.2012 07:10 18,1 C 66 % 0,0 l/m 0,5 km/h (0 Bft) W-NW 292 11,6 C 18,4 C 0,0 km/h (0 Bft)
10.05.2012 07:12 18,5 C 64 % 0,0 l/m 0,5 km/h (0 Bft) N 360 11,6 C 18,6 C 0,0 km/h (0 Bft)
10.05.2012 07:14 18,8 C 64 % 0,0 l/m 0,3 km/h (0 Bft) N-NW 337 11,8 C 19,0 C 0,0 km/h (0 Bft)
10.05.2012 07:16 19,3 C 63 % 0,0 l/m 0,3 km/h (0 Bft) N-NW 337 12,1 C 19,2 C 2,1 km/h (1 Bft)
10.05.2012 07:18 19,5 C 61 % 0,0 l/m 0,6 km/h (0 Bft) NO 45 11,8 C 19,3 C 2,1 km/h (1 Bft)
10.05.2012 07:20 19,7 C 62 % 0,0 l/m 0,6 km/h (0 Bft) S-SW 202 12,2 C 19,4 C 0,0 km/h (0 Bft)
10.05.2012 07:22 20,2 C 61 % 0,0 l/m 0,6 km/h (0 Bft) N 360 12,4 C 19,8 C 0,0 km/h (0 Bft)
10.05.2012 07:24 20,5 C 59 % 0,0 l/m 0,6 km/h (0 Bft) N-NW 337 12,2 C 20,3 C 0,0 km/h (0 Bft)
10.05.2012 07:26 20,8 C 57 % 0,0 l/m 0,5 km/h (0 Bft) N-NO 22 12,0 C 20,8 C 0,0 km/h (0 Bft)
10.05.2012 07:28 21,3 C 58 % 0,0 l/m 0,2 km/h (0 Bft) N-NW 337 12,7 C 21,2 C 0,0 km/h (0 Bft)
10.05.2012 07:30 21,3 C 56 % 0,0 l/m 0,2 km/h (0 Bft) S 180 12,2 C 21,6 C 0,0 km/h (0 Bft)
10.05.2012 07:32 21,7 C 56 % 0,0 l/m 0,2 km/h (0 Bft) N-NW 337 12,5 C 21,8 C 0,0 km/h (0 Bft)
10.05.2012 07:34 21,9 C 56 % 0,0 l/m 0,2 km/h (0 Bft) N 360 12,7 C 22,3 C 0,0 km/h (0 Bft)
10.05.2012 07:36 22,1 C 53 % 0,0 l/m 0,3 km/h (0 Bft) N 360 12,1 C 22,5 C 1,8 km/h (1 Bft)
10.05.2012 07:38 22,4 C 55 % 0,0 l/m 0,3 km/h (0 Bft) O-NO 67 12,9 C 22,7 C 1,8 km/h (1 Bft)
10.05.2012 07:40 22,8 C 54 % 0,0 l/m 0,2 km/h (0 Bft) NO 45 13,0 C 23,0 C 0,0 km/h (0 Bft)
10.05.2012 07:42 23,0 C 53 % 0,0 l/m 0,2 km/h (0 Bft) N 360 12,9 C 23,4 C 2,4 km/h (1 Bft)
10.05.2012 07:44 22,7 C 52 % 0,0 l/m 0,2 km/h (0 Bft) NO 45 12,3 C 23,5 C 2,7 km/h (1 Bft)
10.05.2012 07:46 22,7 C 53 % 0,0 l/m 0,6 km/h (0 Bft) SO 135 12,6 C 23,2 C 2,7 km/h (1 Bft)
10.05.2012 07:48 22,7 C 53 % 0,0 l/m 0,8 km/h (0 Bft) S-SO 157 12,6 C 22,7 C 2,7 km/h (1 Bft)
10.05.2012 07:50 22,6 C 52 % 0,0 l/m 0,8 km/h (0 Bft) NO 45 12,2 C 22,6 C 0,0 km/h (0 Bft)
10.05.2012 07:52 22,6 C 53 % 0,0 l/m 0,8 km/h (0 Bft) N-NO 22 12,5 C 22,9 C 0,0 km/h (0 Bft)
10.05.2012 07:54 22,3 C 52 % 0,0 l/m 0,8 km/h (0 Bft) NO 45 12,0 C 22,8 C 0,0 km/h (0 Bft)
10.05.2012 07:56 21,8 C 52 % 0,0 l/m 0,5 km/h (0 Bft) N-NO 22 11,5 C 22,6 C 1,6 km/h (1 Bft)
10.05.2012 07:58 21,9 C 52 % 0,0 l/m 0,2 km/h (0 Bft) N-NO 22 11,6 C 22,2 C 1,6 km/h (1 Bft)
10.05.2012 08:00 22,3 C 53 % 0,0 l/m 0,2 km/h (0 Bft) NO 45 12,2 C 22,0 C 0,0 km/h (0 Bft)
10.05.2012 08:02 22,9 C 52 % 0,0 l/m 0,2 km/h (0 Bft) S-SO 157 12,5 C 22,2 C 1,8 km/h (1 Bft)
10.05.2012 08:04 23,3 C 51 % 0,0 l/m 0,6 km/h (0 Bft) S 180 12,6 C 22,7 C 2,4 km/h (1 Bft)
10.05.2012 08:06 23,5 C 52 % 0,0 l/m 1,1 km/h (1 Bft) O 90 13,1 C 22,8 C 5,0 km/h (1 Bft)
10.05.2012 08:08 23,9 C 51 % 0,0 l/m 1,1 km/h (1 Bft) O-NO 67 13,1 C 22,9 C 5,0 km/h (1 Bft)
10.05.2012 08:10 24,0 C 49 % 0,0 l/m 1,3 km/h (1 Bft) O 90 12,6 C 23,3 C 0,0 km/h (0 Bft)
10.05.2012 08:12 24,5 C 50 % 0,0 l/m 1,1 km/h (1 Bft) W-SW 247 13,4 C 23,8 C 0,0 km/h (0 Bft)
10.05.2012 08:14 24,5 C 48 % 0,0 l/m 1,0 km/h (0 Bft) N 360 12,8 C 24,2 C 1,9 km/h (1 Bft)
10.05.2012 08:16 24,2 C 48 % 0,0 l/m 0,6 km/h (0 Bft) N-NO 22 12,5 C 24,6 C 1,9 km/h (1 Bft)
10.05.2012 08:18 24,0 C 49 % 0,0 l/m 0,2 km/h (0 Bft) O 90 12,6 C 24,9 C 0,0 km/h (0 Bft)
10.05.2012 08:20 23,8 C 49 % 0,0 l/m 0,2 km/h (0 Bft) S 180 12,4 C 25,4 C 0,0 km/h (0 Bft)
10.05.2012 08:22 23,6 C 50 % 0,0 l/m 0,2 km/h (0 Bft) N-NO 22 12,6 C 25,7 C 1,8 km/h (1 Bft)
10.05.2012 08:24 23,2 C 51 % 0,0 l/m 0,2 km/h (0 Bft) N-NO 22 12,5 C 26,1 C 1,8 km/h (1 Bft)
10.05.2012 08:26 23,1 C 51 % 0,0 l/m 0,3 km/h (0 Bft) O 90 12,4 C 26,3 C 0,0 km/h (0 Bft)
10.05.2012 08:28 22,7 C 52 % 0,0 l/m 0,3 km/h (0 Bft) S-SO 157 12,3 C 26,2 C 0,0 km/h (0 Bft)
10.05.2012 08:30 22,7 C 53 % 0,0 l/m 0,5 km/h (0 Bft) N-NW 337 12,6 C 26,3 C 1,6 km/h (1 Bft)
10.05.2012 08:32 22,3 C 52 % 0,0 l/m 0,3 km/h (0 Bft) O-NO 67 12,0 C 26,6 C 1,6 km/h (1 Bft)
10.05.2012 08:34 22,0 C 53 % 0,0 l/m 0,6 km/h (0 Bft) NO 45 12,0 C 26,5 C 0,0 km/h (0 Bft)
10.05.2012 08:36 22,0 C 54 % 0,0 l/m 0,6 km/h (0 Bft) S 180 12,3 C 26,7 C 0,0 km/h (0 Bft)
10.05.2012 08:38 22,1 C 55 % 0,0 l/m 0,6 km/h (0 Bft) S-SO 157 12,6 C 26,8 C 2,4 km/h (1 Bft)
10.05.2012 08:40 22,0 C 54 % 0,0 l/m 0,6 km/h (0 Bft) NW 315 12,3 C 26,9 C 2,4 km/h (1 Bft)
10.05.2012 08:42 22,0 C 54 % 0,0 l/m 0,6 km/h (0 Bft) S 180 12,3 C 27,1 C 1,8 km/h (1 Bft)
10.05.2012 08:44 22,1 C 55 % 0,0 l/m 0,5 km/h (0 Bft) NO 45 12,6 C 27,2 C 0,0 km/h (0 Bft)
10.05.2012 08:46 22,2 C 54 % 0,0 l/m 0,3 km/h (0 Bft) N-NW 337 12,4 C 27,3 C 0,0 km/h (0 Bft)
10.05.2012 08:48 22,1 C 55 % 0,0 l/m 0,3 km/h (0 Bft) W-NW 292 12,6 C 27,7 C 0,0 km/h (0 Bft)
10.05.2012 08:50 22,1 C 54 % 0,0 l/m 0,3 km/h (0 Bft) W-SW 247 12,3 C 27,8 C 1,9 km/h (1 Bft)
10.05.2012 08:52 22,3 C 55 % 0,0 l/m 0,2 km/h (0 Bft) N 360 12,8 C 27,9 C 1,9 km/h (1 Bft)
10.05.2012 08:54 22,3 C 53 % 0,0 l/m 0,6 km/h (0 Bft) W 270 12,2 C 27,8 C 2,4 km/h (1 Bft)
10.05.2012 08:56 22,2 C 55 % 0,0 l/m 0,6 km/h (0 Bft) N 360 12,7 C 27,6 C 2,4 km/h (1 Bft)
10.05.2012 08:58 22,3 C 53 % 0,0 l/m 0,6 km/h (0 Bft) O-SO 112 12,2 C 27,7 C 0,0 km/h (0 Bft)
10.05.2012 09:00 22,3 C 55 % 0,0 l/m 0,6 km/h (0 Bft) SO 135 12,8 C 28,0 C 0,0 km/h (0 Bft)
10.05.2012 09:02 22,5 C 55 % 0,0 l/m 0,6 km/h (0 Bft) W-NW 292 13,0 C 28,3 C 0,0 km/h (0 Bft)
10.05.2012 09:04 22,6 C 51 % 0,0 l/m 0,6 km/h (0 Bft) W-NW 292 11,9 C 28,2 C 3,1 km/h (1 Bft)
10.05.2012 09:06 22,6 C 48 % 0,0 l/m 0,6 km/h (0 Bft) W-NW 292 11,0 C 28,1 C 3,1 km/h (1 Bft)
10.05.2012 09:08 22,7 C 48 % 0,0 l/m 0,6 km/h (0 Bft) W-NW 292 11,1 C 27,9 C 2,3 km/h (1 Bft)
10.05.2012 09:10 22,8 C 47 % 0,0 l/m 0,8 km/h (0 Bft) NO 45 10,9 C 27,9 C 1,9 km/h (1 Bft)
10.05.2012 09:12 22,9 C 48 % 0,0 l/m 0,8 km/h (0 Bft) SW 225 11,3 C 28,0 C 0,0 km/h (0 Bft)
10.05.2012 09:14 23,0 C 49 % 0,0 l/m 0,6 km/h (0 Bft) W-NW 292 11,7 C 28,2 C 0,0 km/h (0 Bft)
10.05.2012 09:16 23,0 C 50 % 0,0 l/m 0,5 km/h (0 Bft) N 360 12,0 C 28,3 C 0,0 km/h (0 Bft)
10.05.2012 09:18 23,1 C 51 % 0,0 l/m 0,3 km/h (0 Bft) S 180 12,4 C 28,4 C 0,0 km/h (0 Bft)
10.05.2012 09:20 23,3 C 52 % 0,0 l/m 0,0 km/h (0 Bft) S 180 12,9 C 28,7 C 0,0 km/h (0 Bft)
10.05.2012 09:22 23,5 C 50 % 0,0 l/m 0,0 km/h (0 Bft) W-SW 247 12,5 C 28,8 C 0,0 km/h (0 Bft)
10.05.2012 09:24 23,5 C 50 % 0,0 l/m 0,2 km/h (0 Bft) S-SO 157 12,5 C 29,0 C 0,0 km/h (0 Bft)
10.05.2012 09:26 23,5 C 47 % 0,0 l/m 0,2 km/h (0 Bft) SO 135 11,5 C 29,1 C 0,0 km/h (0 Bft)
10.05.2012 09:28 23,6 C 48 % 0,0 l/m 0,2 km/h (0 Bft) W-NW 292 11,9 C 29,1 C 0,0 km/h (0 Bft)
10.05.2012 09:30 23,9 C 49 % 0,0 l/m 0,2 km/h (0 Bft) NO 45 12,5 C 29,1 C 0,0 km/h (0 Bft)
10.05.2012 09:32 24,0 C 49 % 0,0 l/m 0,5 km/h (0 Bft) O-SO 112 12,6 C 29,2 C 2,4 km/h (1 Bft)
10.05.2012 09:34 24,1 C 48 % 0,0 l/m 0,6 km/h (0 Bft) SO 135 12,4 C 29,3 C 3,4 km/h (1 Bft)
10.05.2012 09:36 24,1 C 47 % 0,0 l/m 0,8 km/h (0 Bft) SO 135 12,1 C 29,3 C 3,4 km/h (1 Bft)
10.05.2012 09:38 24,3 C 45 % 0,0 l/m 1,0 km/h (0 Bft) N 360 11,6 C 29,3 C 1,9 km/h (1 Bft)
10.05.2012 09:40 24,2 C 47 % 0,0 l/m 1,3 km/h (1 Bft) NW 315 12,2 C 29,3 C 2,7 km/h (1 Bft)
10.05.2012 09:42 24,2 C 45 % 0,0 l/m 1,6 km/h (1 Bft) W-NW 292 11,5 C 29,1 C 3,4 km/h (1 Bft)
10.05.2012 09:44 24,3 C 45 % 0,0 l/m 1,6 km/h (1 Bft) N-NO 22 11,6 C 28,7 C 3,4 km/h (1 Bft)
10.05.2012 09:46 24,2 C 45 % 0,0 l/m 1,8 km/h (1 Bft) N 360 11,5 C 28,4 C 3,2 km/h (1 Bft)
10.05.2012 09:48 24,5 C 46 % 0,0 l/m 2,3 km/h (1 Bft) N 360 12,1 C 28,2 C 3,2 km/h (1 Bft)
10.05.2012 09:50 24,5 C 45 % 0,0 l/m 2,3 km/h (1 Bft) W-NW 292 11,8 C 28,2 C 3,1 km/h (1 Bft)
10.05.2012 09:52 24,5 C 45 % 0,0 l/m 2,1 km/h (1 Bft) N-NW 337 11,8 C 28,1 C 3,1 km/h (1 Bft)
10.05.2012 09:54 24,7 C 45 % 0,0 l/m 1,9 km/h (1 Bft) N-NW 337 12,0 C 28,1 C 2,6 km/h (1 Bft)
10.05.2012 09:56 24,7 C 45 % 0,0 l/m 2,1 km/h (1 Bft) N-NW 337 12,0 C 28,1 C 3,2 km/h (1 Bft)
10.05.2012 09:58 24,8 C 44 % 0,0 l/m 1,6 km/h (1 Bft) W 270 11,7 C 28,1 C 3,2 km/h (1 Bft)
10.05.2012 10:00 25,1 C 44 % 0,0 l/m 1,9 km/h (1 Bft) W-NW 292 12,0 C 28,2 C 2,9 km/h (1 Bft)
10.05.2012 10:02 24,8 C 43 % 0,0 l/m 2,1 km/h (1 Bft) W-NW 292 11,4 C 28,0 C 3,2 km/h (1 Bft)
10.05.2012 10:04 24,8 C 45 % 0,0 l/m 1,9 km/h (1 Bft) N 360 12,0 C 27,7 C 3,2 km/h (1 Bft)
10.05.2012 10:06 24,9 C 43 % 0,0 l/m 1,8 km/h (1 Bft) S-SW 202 11,4 C 27,8 C 4,0 km/h (1 Bft)
10.05.2012 10:08 25,1 C 44 % 0,0 l/m 2,1 km/h (1 Bft) N-NW 337 12,0 C 27,8 C 4,0 km/h (1 Bft)
10.05.2012 10:10 25,2 C 44 % 0,0 l/m 1,9 km/h (1 Bft) S-SO 157 12,1 C 27,9 C 3,5 km/h (1 Bft)
10.05.2012 10:12 25,5 C 43 % 0,0 l/m 2,1 km/h (1 Bft) S 180 12,0 C 28,1 C 6,4 km/h (2 Bft)
10.05.2012 10:14 25,5 C 42 % 0,0 l/m 2,6 km/h (1 Bft) O-SO 112 11,6 C 28,1 C 7,1 km/h (2 Bft)
10.05.2012 10:16 25,6 C 41 % 0,0 l/m 3,9 km/h (1 Bft) SO 135 11,4 C 27,7 C 7,1 km/h (2 Bft)
10.05.2012 10:18 25,5 C 40 % 0,0 l/m 4,2 km/h (1 Bft) SO 135 10,9 C 27,4 C 8,5 km/h (2 Bft)
10.05.2012 10:20 25,6 C 40 % 0,0 l/m 4,7 km/h (1 Bft) W-NW 292 11,0 C 27,0 C 8,5 km/h (2 Bft)
10.05.2012 10:22 25,7 C 39 % 0,0 l/m 4,5 km/h (1 Bft) N-NW 337 10,7 C 27,0 C 1,9 km/h (1 Bft)
10.05.2012 10:24 25,9 C 39 % 0,0 l/m 3,9 km/h (1 Bft) S 180 10,9 C 27,2 C 1,9 km/h (1 Bft)
10.05.2012 10:26 26,1 C 38 % 0,0 l/m 3,2 km/h (1 Bft) S-SW 202 10,7 C 27,4 C 1,9 km/h (1 Bft)
10.05.2012 10:28 26,1 C 38 % 0,0 l/m 2,4 km/h (1 Bft) SO 135 10,7 C 27,5 C 1,9 km/h (1 Bft)
10.05.2012 10:30 26,3 C 39 % 0,0 l/m 1,9 km/h (1 Bft) S 180 11,2 C 27,5 C 2,4 km/h (1 Bft)
10.05.2012 10:32 26,2 C 38 % 0,0 l/m 1,8 km/h (1 Bft) N-NO 22 10,7 C 27,5 C 2,4 km/h (1 Bft)
10.05.2012 10:34 26,3 C 38 % 0,0 l/m 2,1 km/h (1 Bft) SO 135 10,8 C 27,5 C 4,7 km/h (1 Bft)
10.05.2012 10:36 26,3 C 39 % 0,0 l/m 2,3 km/h (1 Bft) W-NW 292 11,2 C 27,5 C 4,7 km/h (1 Bft)
10.05.2012 10:38 26,3 C 38 % 0,0 l/m 2,7 km/h (1 Bft) SO 135 10,8 C 27,5 C 6,4 km/h (2 Bft)
10.05.2012 10:40 26,3 C 39 % 0,0 l/m 3,2 km/h (1 Bft) SO 135 11,2 C 27,3 C 6,4 km/h (2 Bft)
10.05.2012 10:42 26,4 C 39 % 0,0 l/m 3,4 km/h (1 Bft) SW 225 11,3 C 26,9 C 5,1 km/h (1 Bft)
10.05.2012 10:44 26,5 C 38 % 0,0 l/m 3,5 km/h (1 Bft) SW 225 11,0 C 26,8 C 3,4 km/h (1 Bft)
10.05.2012 10:46 26,7 C 40 % 0,0 l/m 4,0 km/h (1 Bft) S 180 12,0 C 26,8 C 8,9 km/h (2 Bft)
10.05.2012 10:48 26,6 C 39 % 0,0 l/m 4,7 km/h (1 Bft) S 180 11,5 C 26,7 C 8,9 km/h (2 Bft)
10.05.2012 10:50 26,6 C 40 % 0,0 l/m 4,8 km/h (1 Bft) SO 135 11,9 C 26,5 C 9,2 km/h (2 Bft)
10.05.2012 10:52 26,6 C 39 % 0,0 l/m 4,8 km/h (1 Bft) S 180 11,5 C 26,3 C 9,2 km/h (2 Bft)
10.05.2012 10:54 26,8 C 40 % 0,0 l/m 5,1 km/h (1 Bft) W 270 12,1 C 26,1 C 5,6 km/h (1 Bft)
10.05.2012 10:56 26,7 C 37 % 0,0 l/m 5,5 km/h (1 Bft) W-SW 247 10,8 C 26,1 C 11,4 km/h (2 Bft)
10.05.2012 10:58 26,7 C 38 % 0,0 l/m 4,8 km/h (1 Bft) S 180 11,2 C 26,1 C 4,3 km/h (1 Bft)
10.05.2012 11:00 26,8 C 37 % 0,0 l/m 3,9 km/h (1 Bft) N-NO 22 10,9 C 26,3 C 3,4 km/h (1 Bft)
10.05.2012 11:02 26,8 C 36 % 0,0 l/m 3,5 km/h (1 Bft) W 270 10,5 C 26,3 C 4,2 km/h (1 Bft)
10.05.2012 11:04 26,7 C 38 % 0,0 l/m 3,7 km/h (1 Bft) W-SW 247 11,2 C 26,3 C 9,5 km/h (2 Bft)
10.05.2012 11:06 26,7 C 37 % 0,0 l/m 3,5 km/h (1 Bft) W 270 10,8 C 26,3 C 9,5 km/h (2 Bft)
10.05.2012 11:08 26,5 C 37 % 0,0 l/m 3,7 km/h (1 Bft) W-NW 292 10,6 C 26,3 C 6,9 km/h (2 Bft)
10.05.2012 11:10 26,5 C 38 % 0,0 l/m 4,3 km/h (1 Bft) W-SW 247 11,0 C 26,1 C 8,2 km/h (2 Bft)
10.05.2012 11:12 26,2 C 38 % 0,0 l/m 4,8 km/h (1 Bft) W-NW 292 10,7 C 26,0 C 8,0 km/h (2 Bft)
10.05.2012 11:14 25,7 C 38 % 0,0 l/m 5,1 km/h (1 Bft) S 180 10,3 C 25,7 C 8,0 km/h (2 Bft)
10.05.2012 11:16 25,9 C 39 % 0,0 l/m 4,7 km/h (1 Bft) N-NW 337 10,9 C 25,4 C 4,5 km/h (1 Bft)
10.05.2012 11:18 26,0 C 39 % 0,0 l/m 4,7 km/h (1 Bft) W-NW 292 11,0 C 25,4 C 7,1 km/h (2 Bft)
10.05.2012 11:20 26,2 C 37 % 0,0 l/m 4,3 km/h (1 Bft) W-NW 292 10,3 C 25,5 C 7,1 km/h (2 Bft)
10.05.2012 11:22 26,3 C 39 % 0,0 l/m 3,4 km/h (1 Bft) N-NO 22 11,2 C 25,5 C 4,2 km/h (1 Bft)
10.05.2012 11:24 26,5 C 37 % 0,0 l/m 3,1 km/h (1 Bft) W-SW 247 10,6 C 25,8 C 3,4 km/h (1 Bft)
10.05.2012 11:26 26,4 C 37 % 0,0 l/m 3,5 km/h (1 Bft) N-NO 22 10,5 C 25,9 C 3,1 km/h (1 Bft)
10.05.2012 11:28 26,5 C 35 % 0,0 l/m 4,0 km/h (1 Bft) NO 45 9,8 C 25,9 C 6,1 km/h (2 Bft)
10.05.2012 11:30 26,5 C 37 % 0,0 l/m 3,4 km/h (1 Bft) N 360 10,6 C 25,9 C 6,1 km/h (2 Bft)
10.05.2012 11:32 26,6 C 38 % 0,0 l/m 3,1 km/h (1 Bft) NO 45 11,1 C 26,1 C 3,1 km/h (1 Bft)
10.05.2012 11:34 26,7 C 36 % 0,0 l/m 3,1 km/h (1 Bft) W-NW 292 10,4 C 26,4 C 3,5 km/h (1 Bft)
10.05.2012 11:36 26,7 C 36 % 0,0 l/m 2,7 km/h (1 Bft) W 270 10,4 C 26,5 C 6,3 km/h (2 Bft)
10.05.2012 11:38 26,5 C 36 % 0,0 l/m 2,9 km/h (1 Bft) N-NW 337 10,2 C 26,3 C 6,3 km/h (2 Bft)
10.05.2012 11:40 26,4 C 36 % 0,0 l/m 2,9 km/h (1 Bft) NW 315 10,1 C 26,1 C 7,4 km/h (2 Bft)
10.05.2012 11:42 26,5 C 37 % 0,0 l/m 3,2 km/h (1 Bft) N 360 10,6 C 25,9 C 7,4 km/h (2 Bft)
10.05.2012 11:44 26,7 C 37 % 0,0 l/m 3,7 km/h (1 Bft) NW 315 10,8 C 25,8 C 4,5 km/h (1 Bft)
10.05.2012 11:46 26,9 C 38 % 0,0 l/m 3,5 km/h (1 Bft) W 270 11,4 C 25,7 C 4,5 km/h (1 Bft)
10.05.2012 11:48 26,9 C 38 % 0,0 l/m 3,2 km/h (1 Bft) W-NW 292 11,4 C 25,9 C 3,2 km/h (1 Bft)
10.05.2012 11:50 27,1 C 36 % 0,0 l/m 3,5 km/h (1 Bft) N 360 10,7 C 26,0 C 6,1 km/h (2 Bft)
10.05.2012 11:52 27,0 C 35 % 0,0 l/m 3,2 km/h (1 Bft) N-NO 22 10,2 C 25,9 C 6,1 km/h (2 Bft)
10.05.2012 11:54 27,2 C 36 % 0,0 l/m 3,5 km/h (1 Bft) NO 45 10,8 C 25,8 C 5,3 km/h (1 Bft)
10.05.2012 11:56 27,3 C 36 % 0,0 l/m 3,7 km/h (1 Bft) N 360 10,9 C 25,8 C 4,3 km/h (1 Bft)
10.05.2012 11:58 27,5 C 35 % 0,0 l/m 3,7 km/h (1 Bft) N 360 10,7 C 25,7 C 8,2 km/h (2 Bft)
10.05.2012 12:00 27,6 C 36 % 0,0 l/m 3,4 km/h (1 Bft) N-NW 337 11,2 C 25,8 C 8,2 km/h (2 Bft)
10.05.2012 12:02 27,6 C 34 % 0,0 l/m 3,1 km/h (1 Bft) N-NO 22 10,3 C 25,9 C 4,3 km/h (1 Bft)
10.05.2012 12:04 27,6 C 34 % 0,0 l/m 2,9 km/h (1 Bft) W-NW 292 10,3 C 25,9 C 7,9 km/h (2 Bft)
10.05.2012 12:06 27,5 C 35 % 0,0 l/m 2,9 km/h (1 Bft) W-NW 292 10,7 C 25,7 C 7,9 km/h (2 Bft)
10.05.2012 12:08 27,3 C 35 % 0,0 l/m 3,4 km/h (1 Bft) NW 315 10,5 C 25,7 C 6,3 km/h (2 Bft)
10.05.2012 12:10 27,0 C 35 % 0,0 l/m 3,2 km/h (1 Bft) S 180 10,2 C 25,5 C 6,1 km/h (2 Bft)
10.05.2012 12:12 27,1 C 35 % 0,0 l/m 3,9 km/h (1 Bft) SW 225 10,3 C 25,3 C 6,3 km/h (2 Bft)
10.05.2012 12:14 27,2 C 36 % 0,0 l/m 4,0 km/h (1 Bft) S-SO 157 10,8 C 25,1 C 6,3 km/h (2 Bft)
10.05.2012 12:16 27,5 C 36 % 0,0 l/m 3,5 km/h (1 Bft) S 180 11,1 C 25,1 C 3,2 km/h (1 Bft)
10.05.2012 12:18 27,8 C 35 % 0,0 l/m 3,4 km/h (1 Bft) S 180 10,9 C 25,1 C 4,8 km/h (1 Bft)
10.05.2012 12:20 27,9 C 35 % 0,0 l/m 3,5 km/h (1 Bft) S 180 11,0 C 25,1 C 4,8 km/h (1 Bft)
10.05.2012 12:22 28,0 C 36 % 0,0 l/m 3,2 km/h (1 Bft) W-SW 247 11,5 C 25,1 C 3,5 km/h (1 Bft)
10.05.2012 12:24 28,2 C 35 % 0,0 l/m 2,9 km/h (1 Bft) S-SO 157 11,3 C 25,1 C 3,5 km/h (1 Bft)
10.05.2012 12:26 28,4 C 35 % 0,0 l/m 2,7 km/h (1 Bft) N 360 11,4 C 25,2 C 0,0 km/h (0 Bft)
10.05.2012 12:28 28,4 C 34 % 0,0 l/m 2,6 km/h (1 Bft) O-SO 112 11,0 C 25,4 C 2,9 km/h (1 Bft)
10.05.2012 12:30 28,7 C 34 % 0,0 l/m 2,1 km/h (1 Bft) S-SO 157 11,3 C 25,4 C 2,9 km/h (1 Bft)
10.05.2012 12:32 28,5 C 32 % 0,0 l/m 2,1 km/h (1 Bft) W-NW 292 10,2 C 25,5 C 3,9 km/h (1 Bft)
10.05.2012 12:34 28,1 C 34 % 0,0 l/m 2,4 km/h (1 Bft) W-NW 292 10,7 C 25,4 C 5,0 km/h (1 Bft)
10.05.2012 12:36 27,9 C 35 % 0,0 l/m 2,4 km/h (1 Bft) W-NW 292 11,0 C 25,2 C 5,0 km/h (1 Bft)
10.05.2012 12:38 28,0 C 32 % 0,0 l/m 3,1 km/h (1 Bft) N-NO 22 9,7 C 25,1 C 3,7 km/h (1 Bft)
10.05.2012 12:40 27,8 C 34 % 0,0 l/m 3,2 km/h (1 Bft) S 180 10,5 C 25,1 C 3,7 km/h (1 Bft)
10.05.2012 12:42 27,9 C 33 % 0,0 l/m 3,9 km/h (1 Bft) W-SW 247 10,1 C 25,0 C 7,4 km/h (2 Bft)
10.05.2012 12:44 28,1 C 34 % 0,0 l/m 3,9 km/h (1 Bft) S-SO 157 10,7 C 25,0 C 7,4 km/h (2 Bft)
10.05.2012 12:46 28,3 C 34 % 0,0 l/m 3,4 km/h (1 Bft) S-SO 157 10,9 C 24,9 C 2,6 km/h (1 Bft)
10.05.2012 12:48 28,4 C 33 % 0,0 l/m 3,9 km/h (1 Bft) S 180 10,6 C 24,9 C 5,3 km/h (1 Bft)
10.05.2012 12:50 28,3 C 33 % 0,0 l/m 4,0 km/h (1 Bft) S-SW 202 10,5 C 24,9 C 6,0 km/h (2 Bft)
10.05.2012 12:52 28,4 C 32 % 0,0 l/m 4,7 km/h (1 Bft) S-SO 157 10,1 C 24,8 C 9,2 km/h (2 Bft)
10.05.2012 12:54 28,5 C 34 % 0,0 l/m 4,8 km/h (1 Bft) S 180 11,1 C 24,7 C 9,2 km/h (2 Bft)
10.05.2012 12:56 28,7 C 34 % 0,0 l/m 5,1 km/h (1 Bft) S 180 11,3 C 24,7 C 8,0 km/h (2 Bft)
10.05.2012 12:58 28,8 C 33 % 0,0 l/m 5,6 km/h (1 Bft) S-SW 202 10,9 C 24,7 C 8,0 km/h (2 Bft)
10.05.2012 13:00 28,7 C 34 % 0,0 l/m 5,5 km/h (1 Bft) W-NW 292 11,3 C 24,7 C 6,4 km/h (2 Bft)
10.05.2012 13:02 28,9 C 34 % 0,0 l/m 5,3 km/h (1 Bft) S-SW 202 11,4 C 24,7 C 4,0 km/h (1 Bft)
10.05.2012 13:04 29,0 C 31 % 0,0 l/m 4,8 km/h (1 Bft) W-SW 247 10,1 C 24,9 C 5,5 km/h (1 Bft)
10.05.2012 13:06 28,8 C 30 % 0,0 l/m 4,8 km/h (1 Bft) W 270 9,5 C 25,0 C 7,2 km/h (2 Bft)
10.05.2012 13:08 28,6 C 34 % 0,0 l/m 5,3 km/h (1 Bft) S 180 11,2 C 25,1 C 10,3 km/h (2 Bft)
10.05.2012 13:10 28,7 C 34 % 0,0 l/m 5,3 km/h (1 Bft) S 180 11,3 C 25,3 C 10,3 km/h (2 Bft)
10.05.2012 13:12 28,9 C 33 % 0,0 l/m 5,5 km/h (1 Bft) NW 315 11,0 C 25,4 C 6,8 km/h (2 Bft)
10.05.2012 13:14 28,9 C 34 % 0,0 l/m 6,0 km/h (2 Bft) O-SO 112 11,4 C 25,4 C 13,2 km/h (3 Bft)
10.05.2012 13:16 29,1 C 33 % 0,0 l/m 6,1 km/h (2 Bft) S 180 11,2 C 25,4 C 15,4 km/h (3 Bft)
10.05.2012 13:18 29,4 C 33 % 0,0 l/m 5,6 km/h (1 Bft) SO 135 11,4 C 25,5 C 6,6 km/h (2 Bft)
10.05.2012 13:20 29,4 C 33 % 0,0 l/m 5,6 km/h (1 Bft) S-SW 202 11,4 C 25,6 C 6,6 km/h (2 Bft)
10.05.2012 13:22 29,5 C 33 % 0,0 l/m 5,0 km/h (1 Bft) S 180 11,5 C 25,8 C 4,0 km/h (1 Bft)
10.05.2012 13:24 29,7 C 33 % 0,0 l/m 5,0 km/h (1 Bft) S 180 11,7 C 25,9 C 9,2 km/h (2 Bft)
10.05.2012 13:26 29,5 C 30 % 0,0 l/m 5,0 km/h (1 Bft) SO 135 10,1 C 26,1 C 9,2 km/h (2 Bft)
10.05.2012 13:28 29,5 C 33 % 0,0 l/m 5,8 km/h (2 Bft) S-SW 202 11,5 C 26,1 C 7,6 km/h (2 Bft)
10.05.2012 13:30 29,5 C 33 % 0,0 l/m 6,1 km/h (2 Bft) S 180 11,5 C 26,1 C 7,6 km/h (2 Bft)
10.05.2012 13:32 29,6 C 33 % 0,0 l/m 6,4 km/h (2 Bft) S-SO 157 11,6 C 26,1 C 11,6 km/h (2 Bft)
10.05.2012 13:34 29,5 C 32 % 0,0 l/m 7,1 km/h (2 Bft) SO 135 11,0 C 26,1 C 11,6 km/h (2 Bft)
10.05.2012 13:36 29,5 C 32 % 0,0 l/m 6,6 km/h (2 Bft) S 180 11,0 C 26,3 C 6,1 km/h (2 Bft)
10.05.2012 13:38 29,4 C 30 % 0,0 l/m 6,1 km/h (2 Bft) S 180 10,0 C 26,5 C 9,7 km/h (2 Bft)
10.05.2012 13:40 29,2 C 30 % 0,0 l/m 5,3 km/h (1 Bft) W-NW 292 9,8 C 26,5 C 9,7 km/h (2 Bft)
10.05.2012 13:42 29,2 C 30 % 0,0 l/m 4,8 km/h (1 Bft) N 360 9,8 C 26,7 C 4,2 km/h (1 Bft)
10.05.2012 13:44 29,2 C 29 % 0,0 l/m 4,2 km/h (1 Bft) N-NO 22 9,3 C 27,0 C 5,8 km/h (2 Bft)
10.05.2012 13:46 29,1 C 30 % 0,0 l/m 4,3 km/h (1 Bft) N 360 9,7 C 27,1 C 5,8 km/h (2 Bft)
10.05.2012 13:48 29,0 C 29 % 0,0 l/m 4,3 km/h (1 Bft) W-NW 292 9,1 C 27,2 C 4,3 km/h (1 Bft)
10.05.2012 13:50 28,7 C 30 % 0,0 l/m 4,0 km/h (1 Bft) W-SW 247 9,4 C 27,3 C 6,1 km/h (2 Bft)
10.05.2012 13:52 28,6 C 30 % 0,0 l/m 4,7 km/h (1 Bft) W-SW 247 9,3 C 27,3 C 6,8 km/h (2 Bft)
10.05.2012 13:54 28,6 C 30 % 0,0 l/m 5,1 km/h (1 Bft) S-SW 202 9,3 C 27,4 C 6,8 km/h (2 Bft)
10.05.2012 13:56 28,7 C 29 % 0,0 l/m 5,3 km/h (1 Bft) W 270 8,9 C 27,5 C 5,6 km/h (1 Bft)
10.05.2012 13:58 28,7 C 32 % 0,0 l/m 5,0 km/h (1 Bft) S-SO 157 10,4 C 27,5 C 5,6 km/h (1 Bft)
10.05.2012 14:00 28,7 C 31 % 0,0 l/m 4,7 km/h (1 Bft) O-SO 112 9,9 C 27,8 C 5,5 km/h (1 Bft)
10.05.2012 14:02 28,9 C 33 % 0,0 l/m 4,5 km/h (1 Bft) O 90 11,0 C 28,1 C 5,8 km/h (2 Bft)
10.05.2012 14:04 29,0 C 32 % 0,0 l/m 4,2 km/h (1 Bft) W-NW 292 10,6 C 28,1 C 5,8 km/h (2 Bft)
10.05.2012 14:07 28,8 C 33 % 0,0 l/m 3,5 km/h (1 Bft) W 270 10,9 C 28,1 C 3,5 km/h (1 Bft)
10.05.2012 14:08 28,8 C 31 % 0,0 l/m 3,2 km/h (1 Bft) SW 225 10,0 C 28,1 C 2,7 km/h (1 Bft)
10.05.2012 14:10 29,1 C 33 % 0,0 l/m 3,5 km/h (1 Bft) S-SO 157 11,2 C 28,2 C 4,7 km/h (1 Bft)
10.05.2012 14:12 29,3 C 32 % 0,0 l/m 3,7 km/h (1 Bft) W 270 10,9 C 28,3 C 5,5 km/h (1 Bft)
10.05.2012 14:14 29,2 C 32 % 0,0 l/m 3,2 km/h (1 Bft) N-NW 337 10,8 C 28,4 C 5,5 km/h (1 Bft)
10.05.2012 14:16 29,1 C 32 % 0,0 l/m 3,4 km/h (1 Bft) W-SW 247 10,7 C 28,5 C 3,4 km/h (1 Bft)
10.05.2012 14:18 29,2 C 35 % 0,0 l/m 3,4 km/h (1 Bft) SO 135 12,1 C 28,8 C 9,0 km/h (2 Bft)
10.05.2012 14:20 29,3 C 34 % 0,0 l/m 3,4 km/h (1 Bft) O-NO 67 11,8 C 29,0 C 9,0 km/h (2 Bft)
10.05.2012 14:22 29,3 C 32 % 0,0 l/m 3,1 km/h (1 Bft) NO 45 10,9 C 29,2 C 3,2 km/h (1 Bft)
10.05.2012 14:24 29,1 C 33 % 0,0 l/m 3,2 km/h (1 Bft) SO 135 11,2 C 29,3 C 10,3 km/h (2 Bft)
10.05.2012 14:26 29,1 C 32 % 0,0 l/m 3,2 km/h (1 Bft) W-SW 247 10,7 C 29,5 C 10,3 km/h (2 Bft)
10.05.2012 14:28 28,5 C 31 % 0,0 l/m 3,9 km/h (1 Bft) W-SW 247 9,7 C 29,3 C 4,7 km/h (1 Bft)
10.05.2012 14:30 28,7 C 33 % 0,0 l/m 3,7 km/h (1 Bft) S-SW 202 10,8 C 29,1 C 4,7 km/h (1 Bft)
10.05.2012 14:32 28,8 C 33 % 0,0 l/m 4,3 km/h (1 Bft) S 180 10,9 C 28,8 C 7,1 km/h (2 Bft)
10.05.2012 14:34 28,8 C 33 % 0,0 l/m 4,5 km/h (1 Bft) S 180 10,9 C 28,7 C 7,1 km/h (2 Bft)
10.05.2012 14:36 28,9 C 34 % 0,0 l/m 4,5 km/h (1 Bft) O-SO 112 11,4 C 28,7 C 6,6 km/h (2 Bft)
10.05.2012 14:38 28,9 C 34 % 0,0 l/m 4,0 km/h (1 Bft) O-SO 112 11,4 C 28,7 C 6,6 km/h (2 Bft)
10.05.2012 14:40 29,0 C 33 % 0,0 l/m 3,9 km/h (1 Bft) N-NW 337 11,1 C 28,8 C 4,7 km/h (1 Bft)
10.05.2012 14:42 29,3 C 32 % 0,0 l/m 3,9 km/h (1 Bft) SO 135 10,9 C 28,9 C 4,7 km/h (1 Bft)
10.05.2012 14:44 29,4 C 33 % 0,0 l/m 3,7 km/h (1 Bft) S 180 11,4 C 29,1 C 5,6 km/h (1 Bft)
10.05.2012 14:46 29,6 C 33 % 0,0 l/m 4,0 km/h (1 Bft) SW 225 11,6 C 29,2 C 5,6 km/h (1 Bft)
10.05.2012 14:48 29,7 C 32 % 0,0 l/m 4,0 km/h (1 Bft) W 270 11,2 C 29,2 C 6,6 km/h (2 Bft)
10.05.2012 14:50 29,5 C 30 % 0,0 l/m 4,8 km/h (1 Bft) W 270 10,1 C 29,1 C 6,6 km/h (2 Bft)
10.05.2012 14:52 29,1 C 30 % 0,0 l/m 5,3 km/h (1 Bft) W-SW 247 9,7 C 28,9 C 6,9 km/h (2 Bft)
10.05.2012 14:54 29,1 C 32 % 0,0 l/m 5,5 km/h (1 Bft) SO 135 10,7 C 28,8 C 6,9 km/h (2 Bft)
10.05.2012 14:56 29,1 C 32 % 0,0 l/m 5,0 km/h (1 Bft) N-NW 337 10,7 C 28,9 C 4,5 km/h (1 Bft)
10.05.2012 14:58 29,1 C 34 % 0,0 l/m 4,3 km/h (1 Bft) O-SO 112 11,6 C 29,0 C 0,0 km/h (0 Bft)
10.05.2012 15:00 29,2 C 32 % 0,0 l/m 3,5 km/h (1 Bft) S 180 10,8 C 29,4 C 5,0 km/h (1 Bft)
10.05.2012 15:02 29,3 C 32 % 0,0 l/m 3,1 km/h (1 Bft) S 180 10,9 C 29,6 C 5,0 km/h (1 Bft)
10.05.2012 15:04 29,2 C 32 % 0,0 l/m 2,7 km/h (1 Bft) W 270 10,8 C 29,6 C 4,7 km/h (1 Bft)
10.05.2012 15:06 29,2 C 34 % 0,0 l/m 3,1 km/h (1 Bft) O-SO 112 11,7 C 29,7 C 4,7 km/h (1 Bft)
10.05.2012 15:08 29,2 C 33 % 0,0 l/m 3,5 km/h (1 Bft) S-SW 202 11,3 C 29,7 C 5,0 km/h (1 Bft)
10.05.2012 15:10 29,2 C 32 % 0,0 l/m 4,0 km/h (1 Bft) W 270 10,8 C 29,5 C 5,0 km/h (1 Bft)
10.05.2012 15:12 29,0 C 30 % 0,0 l/m 4,3 km/h (1 Bft) SW 225 9,6 C 29,3 C 5,0 km/h (1 Bft)
10.05.2012 15:14 28,8 C 30 % 0,0 l/m 4,3 km/h (1 Bft) W-SW 247 9,5 C 29,0 C 4,8 km/h (1 Bft)
10.05.2012 15:16 28,8 C 31 % 0,0 l/m 4,2 km/h (1 Bft) S-SO 157 10,0 C 28,7 C 4,5 km/h (1 Bft)
10.05.2012 15:18 28,9 C 33 % 0,0 l/m 4,2 km/h (1 Bft) S-SW 202 11,0 C 28,7 C 5,5 km/h (1 Bft)
10.05.2012 15:20 29,1 C 33 % 0,0 l/m 3,7 km/h (1 Bft) S-SO 157 11,2 C 28,7 C 5,5 km/h (1 Bft)
10.05.2012 15:22 29,3 C 33 % 0,0 l/m 3,5 km/h (1 Bft) S-SO 157 11,3 C 28,9 C 5,0 km/h (1 Bft)
10.05.2012 15:24 29,4 C 32 % 0,0 l/m 3,7 km/h (1 Bft) W-SW 247 11,0 C 29,0 C 5,0 km/h (1 Bft)
10.05.2012 15:26 29,4 C 32 % 0,0 l/m 3,7 km/h (1 Bft) S-SO 157 11,0 C 29,1 C 4,2 km/h (1 Bft)
10.05.2012 15:28 29,1 C 30 % 0,0 l/m 3,9 km/h (1 Bft) W 270 9,7 C 29,2 C 4,8 km/h (1 Bft)
10.05.2012 15:30 29,2 C 33 % 0,0 l/m 3,7 km/h (1 Bft) S-SW 202 11,3 C 29,2 C 4,8 km/h (1 Bft)
10.05.2012 15:32 29,1 C 34 % 0,0 l/m 3,2 km/h (1 Bft) S 180 11,6 C 29,4 C 2,6 km/h (1 Bft)
10.05.2012 15:34 28,8 C 34 % 0,0 l/m 3,5 km/h (1 Bft) SO 135 11,4 C 29,6 C 7,9 km/h (2 Bft)
10.05.2012 15:36 29,0 C 34 % 0,0 l/m 3,5 km/h (1 Bft) S-SW 202 11,5 C 29,5 C 7,9 km/h (2 Bft)
10.05.2012 15:38 29,3 C 33 % 0,0 l/m 3,2 km/h (1 Bft) W-SW 247 11,3 C 29,2 C 4,2 km/h (1 Bft)
10.05.2012 15:40 29,2 C 33 % 0,0 l/m 2,9 km/h (1 Bft) W-NW 292 11,3 C 29,4 C 2,7 km/h (1 Bft)
10.05.2012 15:42 29,0 C 31 % 0,0 l/m 2,7 km/h (1 Bft) N-NO 22 10,1 C 29,8 C 1,9 km/h (1 Bft)
10.05.2012 15:44 28,9 C 31 % 0,0 l/m 2,6 km/h (1 Bft) NW 315 10,1 C 30,3 C 7,7 km/h (2 Bft)
10.05.2012 15:46 28,7 C 31 % 0,0 l/m 1,9 km/h (1 Bft) N-NO 22 9,9 C 30,5 C 7,7 km/h (2 Bft)
10.05.2012 15:48 28,4 C 33 % 0,0 l/m 1,9 km/h (1 Bft) S-SO 157 10,6 C 30,6 C 8,0 km/h (2 Bft)
10.05.2012 15:50 28,3 C 34 % 0,0 l/m 2,9 km/h (1 Bft) S 180 10,9 C 30,4 C 8,0 km/h (2 Bft)
10.05.2012 15:52 28,3 C 34 % 0,0 l/m 4,0 km/h (1 Bft) SO 135 10,9 C 29,7 C 6,1 km/h (2 Bft)
10.05.2012 15:54 28,3 C 33 % 0,0 l/m 4,7 km/h (1 Bft) S-SW 202 10,5 C 29,3 C 5,8 km/h (2 Bft)
10.05.2012 15:56 28,3 C 33 % 0,0 l/m 4,3 km/h (1 Bft) S-SO 157 10,5 C 29,1 C 5,8 km/h (2 Bft)
10.05.2012 15:58 28,2 C 34 % 0,0 l/m 4,5 km/h (1 Bft) S-SW 202 10,8 C 29,1 C 4,5 km/h (1 Bft)
10.05.2012 16:00 28,3 C 33 % 0,0 l/m 4,5 km/h (1 Bft) W 270 10,5 C 29,0 C 3,7 km/h (1 Bft)
10.05.2012 16:02 28,3 C 34 % 0,0 l/m 3,7 km/h (1 Bft) W 270 10,9 C 29,0 C 3,9 km/h (1 Bft)
10.05.2012 16:04 28,2 C 34 % 0,0 l/m 3,1 km/h (1 Bft) O-SO 112 10,8 C 29,0 C 5,3 km/h (1 Bft)
10.05.2012 16:06 28,3 C 36 % 0,0 l/m 2,9 km/h (1 Bft) S 180 11,8 C 29,1 C 5,3 km/h (1 Bft)
10.05.2012 16:08 28,5 C 36 % 0,0 l/m 2,7 km/h (1 Bft) O-NO 67 12,0 C 29,5 C 3,2 km/h (1 Bft)
10.05.2012 16:10 28,4 C 34 % 0,0 l/m 2,3 km/h (1 Bft) O-SO 112 11,0 C 29,7 C 2,6 km/h (1 Bft)
10.05.2012 16:12 28,7 C 37 % 0,0 l/m 2,4 km/h (1 Bft) O-SO 112 12,5 C 29,8 C 6,4 km/h (2 Bft)
10.05.2012 16:14 28,7 C 36 % 0,0 l/m 2,6 km/h (1 Bft) SO 135 12,1 C 30,0 C 6,4 km/h (2 Bft)
10.05.2012 16:16 28,9 C 35 % 0,0 l/m 2,7 km/h (1 Bft) S 180 11,9 C 30,1 C 4,2 km/h (1 Bft)
10.05.2012 16:18 28,8 C 35 % 0,0 l/m 3,4 km/h (1 Bft) SO 135 11,8 C 30,1 C 6,1 km/h (2 Bft)
10.05.2012 16:20 28,9 C 34 % 0,0 l/m 3,5 km/h (1 Bft) S-SW 202 11,4 C 30,1 C 6,1 km/h (2 Bft)
10.05.2012 16:22 28,9 C 35 % 0,0 l/m 3,7 km/h (1 Bft) SO 135 11,9 C 30,2 C 4,7 km/h (1 Bft)
10.05.2012 16:24 28,9 C 35 % 0,0 l/m 3,9 km/h (1 Bft) SO 135 11,9 C 30,4 C 5,1 km/h (1 Bft)
10.05.2012 16:26 28,9 C 34 % 0,0 l/m 4,2 km/h (1 Bft) SO 135 11,4 C 30,3 C 6,4 km/h (2 Bft)
10.05.2012 16:28 28,9 C 34 % 0,0 l/m 4,3 km/h (1 Bft) S-SO 157 11,4 C 30,2 C 6,4 km/h (2 Bft)
10.05.2012 16:30 28,7 C 34 % 0,0 l/m 4,5 km/h (1 Bft) S-SW 202 11,3 C 30,1 C 6,0 km/h (2 Bft)
10.05.2012 16:32 28,7 C 34 % 0,0 l/m 4,8 km/h (1 Bft) S-SW 202 11,3 C 30,0 C 5,3 km/h (1 Bft)
10.05.2012 16:34 28,8 C 34 % 0,0 l/m 4,5 km/h (1 Bft) S-SO 157 11,4 C 30,1 C 6,9 km/h (2 Bft)
10.05.2012 16:36 28,7 C 33 % 0,0 l/m 4,2 km/h (1 Bft) S-SO 157 10,8 C 30,2 C 6,9 km/h (2 Bft)
10.05.2012 16:38 28,7 C 34 % 0,0 l/m 4,0 km/h (1 Bft) S-SO 157 11,3 C 30,3 C 4,0 km/h (1 Bft)
10.05.2012 16:40 28,7 C 34 % 0,0 l/m 3,4 km/h (1 Bft) S-SO 157 11,3 C 30,5 C 3,4 km/h (1 Bft)
10.05.2012 16:42 28,7 C 34 % 0,0 l/m 3,2 km/h (1 Bft) S-SO 157 11,3 C 30,7 C 7,2 km/h (2 Bft)
10.05.2012 16:44 28,6 C 34 % 0,0 l/m 3,9 km/h (1 Bft) SO 135 11,2 C 30,7 C 7,2 km/h (2 Bft)
10.05.2012 16:46 28,5 C 34 % 0,0 l/m 3,7 km/h (1 Bft) N 360 11,1 C 30,6 C 7,9 km/h (2 Bft)
10.05.2012 16:48 28,4 C 33 % 0,0 l/m 3,7 km/h (1 Bft) SW 225 10,6 C 30,5 C 7,9 km/h (2 Bft)
10.05.2012 16:50 28,4 C 34 % 0,0 l/m 4,2 km/h (1 Bft) S 180 11,0 C 30,6 C 7,7 km/h (2 Bft)
10.05.2012 16:52 28,2 C 34 % 0,0 l/m 5,1 km/h (1 Bft) S 180 10,8 C 30,4 C 9,0 km/h (2 Bft)
10.05.2012 16:54 28,2 C 34 % 0,0 l/m 5,3 km/h (1 Bft) S-SO 157 10,8 C 30,2 C 9,0 km/h (2 Bft)
10.05.2012 16:56 28,1 C 33 % 0,0 l/m 5,5 km/h (1 Bft) S-SW 202 10,3 C 30,0 C 8,5 km/h (2 Bft)
10.05.2012 16:58 28,1 C 34 % 0,0 l/m 5,3 km/h (1 Bft) S-SO 157 10,7 C 29,8 C 7,1 km/h (2 Bft)
10.05.2012 17:00 27,9 C 33 % 0,0 l/m 5,3 km/h (1 Bft) SO 135 10,1 C 29,8 C 7,1 km/h (2 Bft)
10.05.2012 17:02 27,9 C 33 % 0,0 l/m 4,2 km/h (1 Bft) S-SW 202 10,1 C 30,0 C 3,2 km/h (1 Bft)
10.05.2012 17:04 27,9 C 34 % 0,0 l/m 3,9 km/h (1 Bft) S 180 10,6 C 30,2 C 7,2 km/h (2 Bft)
10.05.2012 17:06 27,9 C 33 % 0,0 l/m 3,7 km/h (1 Bft) S-SO 157 10,1 C 30,3 C 7,2 km/h (2 Bft)
10.05.2012 17:08 27,8 C 34 % 0,0 l/m 3,5 km/h (1 Bft) SO 135 10,5 C 30,3 C 7,6 km/h (2 Bft)
10.05.2012 17:10 27,8 C 34 % 0,0 l/m 3,7 km/h (1 Bft) S-SO 157 10,5 C 30,3 C 7,6 km/h (2 Bft)
10.05.2012 17:12 27,7 C 34 % 0,0 l/m 3,5 km/h (1 Bft) NW 315 10,4 C 30,3 C 6,3 km/h (2 Bft)
10.05.2012 17:14 27,7 C 34 % 0,0 l/m 3,5 km/h (1 Bft) S 180 10,4 C 30,4 C 2,3 km/h (1 Bft)
10.05.2012 17:16 27,6 C 35 % 0,0 l/m 3,1 km/h (1 Bft) SO 135 10,7 C 30,6 C 5,0 km/h (1 Bft)
10.05.2012 17:18 27,6 C 34 % 0,0 l/m 2,9 km/h (1 Bft) S 180 10,3 C 30,8 C 5,0 km/h (1 Bft)
10.05.2012 17:20 27,5 C 34 % 0,0 l/m 3,1 km/h (1 Bft) S 180 10,2 C 30,7 C 4,8 km/h (1 Bft)
10.05.2012 17:22 27,4 C 35 % 0,0 l/m 3,1 km/h (1 Bft) S-SW 202 10,6 C 30,6 C 5,8 km/h (2 Bft)
10.05.2012 17:24 27,4 C 35 % 0,0 l/m 3,7 km/h (1 Bft) S 180 10,6 C 30,5 C 6,6 km/h (2 Bft)
10.05.2012 17:26 27,4 C 34 % 0,0 l/m 4,3 km/h (1 Bft) O-SO 112 10,1 C 30,4 C 6,6 km/h (2 Bft)
10.05.2012 17:28 27,5 C 34 % 0,0 l/m 4,7 km/h (1 Bft) S 180 10,2 C 30,1 C 5,0 km/h (1 Bft)
10.05.2012 17:30 27,4 C 34 % 0,0 l/m 4,7 km/h (1 Bft) O 90 10,1 C 29,9 C 5,0 km/h (1 Bft)
10.05.2012 17:32 27,3 C 35 % 0,0 l/m 4,8 km/h (1 Bft) SO 135 10,5 C 29,8 C 6,1 km/h (2 Bft)
10.05.2012 17:34 27,2 C 34 % 0,0 l/m 4,3 km/h (1 Bft) S 180 10,0 C 29,8 C 6,1 km/h (2 Bft)
10.05.2012 17:36 27,2 C 34 % 0,0 l/m 4,2 km/h (1 Bft) S 180 10,0 C 30,0 C 6,9 km/h (2 Bft)
10.05.2012 17:38 27,2 C 34 % 0,0 l/m 4,0 km/h (1 Bft) S 180 10,0 C 30,0 C 6,9 km/h (2 Bft)
10.05.2012 17:40 27,3 C 34 % 0,0 l/m 3,7 km/h (1 Bft) S-SO 157 10,0 C 30,0 C 4,0 km/h (1 Bft)
10.05.2012 17:42 27,2 C 36 % 0,0 l/m 3,9 km/h (1 Bft) S-SO 157 10,8 C 30,0 C 5,3 km/h (1 Bft)
10.05.2012 17:44 27,2 C 35 % 0,0 l/m 4,2 km/h (1 Bft) O-SO 112 10,4 C 30,0 C 5,3 km/h (1 Bft)
10.05.2012 17:46 27,1 C 35 % 0,0 l/m 4,2 km/h (1 Bft) O-SO 112 10,3 C 30,0 C 5,3 km/h (1 Bft)
10.05.2012 17:48 27,1 C 34 % 0,0 l/m 4,0 km/h (1 Bft) SO 135 9,9 C 30,0 C 5,3 km/h (1 Bft)
10.05.2012 17:50 27,0 C 34 % 0,0 l/m 3,5 km/h (1 Bft) O-SO 112 9,8 C 30,0 C 3,1 km/h (1 Bft)
10.05.2012 17:52 26,9 C 35 % 0,0 l/m 3,7 km/h (1 Bft) S-SO 157 10,1 C 30,1 C 4,0 km/h (1 Bft)
10.05.2012 17:54 26,9 C 35 % 0,0 l/m 3,2 km/h (1 Bft) O-SO 112 10,1 C 30,2 C 4,0 km/h (1 Bft)
10.05.2012 17:56 26,7 C 34 % 0,0 l/m 3,1 km/h (1 Bft) S 180 9,5 C 30,1 C 3,2 km/h (1 Bft)
10.05.2012 17:58 26,6 C 34 % 0,0 l/m 2,9 km/h (1 Bft) SW 225 9,4 C 29,7 C 3,2 km/h (1 Bft)
10.05.2012 18:00 26,6 C 34 % 0,0 l/m 3,1 km/h (1 Bft) S 180 9,4 C 29,4 C 2,7 km/h (1 Bft)
10.05.2012 18:02 26,5 C 36 % 0,0 l/m 2,9 km/h (1 Bft) SO 135 10,2 C 29,1 C 4,2 km/h (1 Bft)
10.05.2012 18:04 26,5 C 36 % 0,0 l/m 2,7 km/h (1 Bft) SO 135 10,2 C 28,7 C 4,2 km/h (1 Bft)
10.05.2012 18:06 26,5 C 37 % 0,0 l/m 2,7 km/h (1 Bft) S 180 10,6 C 28,5 C 3,4 km/h (1 Bft)
10.05.2012 18:08 26,4 C 37 % 0,0 l/m 2,6 km/h (1 Bft) S 180 10,5 C 28,6 C 2,9 km/h (1 Bft)
10.05.2012 18:10 26,4 C 37 % 0,0 l/m 2,7 km/h (1 Bft) O-SO 112 10,5 C 28,8 C 5,3 km/h (1 Bft)
10.05.2012 18:12 26,4 C 37 % 0,0 l/m 2,9 km/h (1 Bft) O-SO 112 10,5 C 29,0 C 5,3 km/h (1 Bft)
10.05.2012 18:14 26,5 C 37 % 0,0 l/m 2,9 km/h (1 Bft) SO 135 10,6 C 29,3 C 3,2 km/h (1 Bft)
10.05.2012 18:15 26,5 C 37 % 0,0 l/m 2,9 km/h (1 Bft) SO 135 10,6 C 29,3 C 3,2 km/h (1 Bft)
10.05.2012 18:16 26,5 C 36 % 0,0 l/m 3,2 km/h (1 Bft) S 180 10,2 C 29,4 C 5,1 km/h (1 Bft)
10.05.2012 18:18 26,4 C 36 % 0,0 l/m 3,2 km/h (1 Bft) S 180 10,1 C 29,5 C 5,1 km/h (1 Bft)
10.05.2012 18:20 26,4 C 36 % 0,0 l/m 3,4 km/h (1 Bft) S 180 10,1 C 29,6 C 7,1 km/h (2 Bft)
10.05.2012 18:22 26,5 C 36 % 0,0 l/m 3,4 km/h (1 Bft) W 270 10,2 C 29,6 C 7,1 km/h (2 Bft)
10.05.2012 18:24 26,3 C 35 % 0,0 l/m 3,9 km/h (1 Bft) W-SW 247 9,6 C 29,5 C 5,5 km/h (1 Bft)
10.05.2012 18:26 26,2 C 35 % 0,0 l/m 4,0 km/h (1 Bft) S 180 9,5 C 29,3 C 5,8 km/h (2 Bft)
10.05.2012 18:28 26,1 C 36 % 0,0 l/m 4,0 km/h (1 Bft) W-SW 247 9,8 C 29,2 C 5,8 km/h (2 Bft)
10.05.2012 18:30 26,0 C 35 % 0,0 l/m 4,3 km/h (1 Bft) W-SW 247 9,3 C 29,0 C 4,2 km/h (1 Bft)
10.05.2012 18:32 25,9 C 36 % 0,0 l/m 3,9 km/h (1 Bft) S 180 9,7 C 28,7 C 2,9 km/h (1 Bft)
10.05.2012 18:34 25,9 C 36 % 0,0 l/m 3,9 km/h (1 Bft) S 180 9,7 C 28,4 C 3,5 km/h (1 Bft)
10.05.2012 18:36 25,7 C 37 % 0,0 l/m 3,2 km/h (1 Bft) W-NW 292 9,9 C 28,2 C 3,5 km/h (1 Bft)
10.05.2012 18:38 25,6 C 38 % 0,0 l/m 3,1 km/h (1 Bft) S-SO 157 10,2 C 28,1 C 2,4 km/h (1 Bft)
10.05.2012 18:40 25,6 C 38 % 0,0 l/m 2,7 km/h (1 Bft) S-SO 157 10,2 C 28,1 C 3,5 km/h (1 Bft)
10.05.2012 18:42 25,5 C 38 % 0,0 l/m 2,9 km/h (1 Bft) S 180 10,1 C 28,0 C 4,8 km/h (1 Bft)
10.05.2012 18:44 25,5 C 38 % 0,0 l/m 2,7 km/h (1 Bft) S-SW 202 10,1 C 28,0 C 2,7 km/h (1 Bft)
10.05.2012 18:46 25,3 C 38 % 0,0 l/m 2,7 km/h (1 Bft) W-SW 247 9,9 C 27,8 C 4,7 km/h (1 Bft)
10.05.2012 18:48 25,3 C 37 % 0,0 l/m 2,7 km/h (1 Bft) S 180 9,6 C 27,7 C 4,7 km/h (1 Bft)
10.05.2012 18:50 25,2 C 37 % 0,0 l/m 2,7 km/h (1 Bft) SO 135 9,5 C 27,6 C 3,1 km/h (1 Bft)
10.05.2012 18:52 25,2 C 38 % 0,0 l/m 2,4 km/h (1 Bft) S 180 9,9 C 27,4 C 2,9 km/h (1 Bft)
10.05.2012 18:54 25,1 C 38 % 0,0 l/m 2,1 km/h (1 Bft) O-SO 112 9,8 C 27,2 C 2,9 km/h (1 Bft)
10.05.2012 18:56 25,0 C 38 % 0,0 l/m 1,9 km/h (1 Bft) SO 135 9,7 C 27,2 C 2,1 km/h (1 Bft)
10.05.2012 18:58 25,1 C 39 % 0,0 l/m 1,4 km/h (1 Bft) O-SO 112 10,2 C 27,4 C 0,0 km/h (0 Bft)
10.05.2012 19:00 25,1 C 40 % 0,0 l/m 1,3 km/h (1 Bft) SO 135 10,5 C 27,6 C 0,0 km/h (0 Bft)
10.05.2012 19:02 24,8 C 40 % 0,0 l/m 1,1 km/h (1 Bft) S 180 10,3 C 28,0 C 4,2 km/h (1 Bft)
10.05.2012 19:04 24,8 C 40 % 0,0 l/m 1,3 km/h (1 Bft) S-SO 157 10,3 C 28,3 C 1,9 km/h (1 Bft)
10.05.2012 19:06 24,8 C 41 % 0,0 l/m 1,6 km/h (1 Bft) S 180 10,6 C 28,5 C 4,3 km/h (1 Bft)
10.05.2012 19:08 24,7 C 40 % 0,0 l/m 2,1 km/h (1 Bft) S 180 10,2 C 28,6 C 4,3 km/h (1 Bft)
10.05.2012 19:10 24,6 C 40 % 0,0 l/m 2,3 km/h (1 Bft) S-SW 202 10,1 C 28,6 C 2,3 km/h (1 Bft)
10.05.2012 19:12 24,6 C 40 % 0,0 l/m 2,4 km/h (1 Bft) SO 135 10,1 C 28,6 C 2,9 km/h (1 Bft)
10.05.2012 19:14 24,7 C 40 % 0,0 l/m 2,4 km/h (1 Bft) SO 135 10,2 C 28,6 C 3,2 km/h (1 Bft)
10.05.2012 19:16 24,7 C 40 % 0,0 l/m 2,4 km/h (1 Bft) S 180 10,2 C 28,6 C 1,8 km/h (1 Bft)
10.05.2012 19:18 24,5 C 42 % 0,0 l/m 1,9 km/h (1 Bft) S 180 10,7 C 28,6 C 1,9 km/h (1 Bft)
10.05.2012 19:20 24,4 C 41 % 0,0 l/m 1,9 km/h (1 Bft) SO 135 10,3 C 28,6 C 4,5 km/h (1 Bft)
10.05.2012 19:22 24,3 C 40 % 0,0 l/m 2,4 km/h (1 Bft) S 180 9,8 C 28,4 C 4,5 km/h (1 Bft)
10.05.2012 19:24 24,3 C 40 % 0,0 l/m 2,7 km/h (1 Bft) S 180 9,8 C 28,2 C 4,8 km/h (1 Bft)
10.05.2012 19:26 24,3 C 40 % 0,0 l/m 2,6 km/h (1 Bft) S 180 9,8 C 28,1 C 4,8 km/h (1 Bft)
10.05.2012 19:28 24,2 C 41 % 0,0 l/m 2,9 km/h (1 Bft) S-SO 157 10,1 C 28,0 C 4,2 km/h (1 Bft)
10.05.2012 19:30 24,0 C 41 % 0,0 l/m 2,9 km/h (1 Bft) S 180 9,9 C 27,8 C 4,2 km/h (1 Bft)
10.05.2012 19:32 24,1 C 41 % 0,0 l/m 2,4 km/h (1 Bft) SO 135 10,0 C 27,4 C 3,7 km/h (1 Bft)
10.05.2012 19:34 23,9 C 41 % 0,0 l/m 2,1 km/h (1 Bft) S-SO 157 9,8 C 27,2 C 2,3 km/h (1 Bft)
10.05.2012 19:36 23,9 C 42 % 0,0 l/m 1,6 km/h (1 Bft) W-SW 247 10,2 C 26,9 C 1,6 km/h (1 Bft)
10.05.2012 19:38 23,7 C 43 % 0,0 l/m 1,4 km/h (1 Bft) O-SO 112 10,4 C 26,8 C 0,0 km/h (0 Bft)
10.05.2012 19:40 23,6 C 44 % 0,0 l/m 1,0 km/h (0 Bft) O 90 10,6 C 26,8 C 0,0 km/h (0 Bft)
10.05.2012 19:42 23,5 C 45 % 0,0 l/m 0,5 km/h (0 Bft) NO 45 10,9 C 26,9 C 0,0 km/h (0 Bft)
10.05.2012 19:44 23,3 C 45 % 0,0 l/m 0,2 km/h (0 Bft) SO 135 10,7 C 26,9 C 0,0 km/h (0 Bft)
10.05.2012 19:46 23,1 C 46 % 0,0 l/m 0,0 km/h (0 Bft) S 180 10,8 C 27,0 C 0,0 km/h (0 Bft)
10.05.2012 19:48 23,0 C 46 % 0,0 l/m 0,0 km/h (0 Bft) SO 135 10,7 C 27,0 C 0,0 km/h (0 Bft)
10.05.2012 19:50 22,9 C 46 % 0,0 l/m 0,0 km/h (0 Bft) SO 135 10,7 C 26,9 C 0,0 km/h (0 Bft)
10.05.2012 19:52 22,7 C 47 % 0,0 l/m 0,2 km/h (0 Bft) S-SO 157 10,8 C 26,8 C 0,0 km/h (0 Bft)
10.05.2012 19:54 22,6 C 48 % 0,0 l/m 0,2 km/h (0 Bft) N-NO 22 11,0 C 26,5 C 0,0 km/h (0 Bft)
10.05.2012 19:56 22,4 C 48 % 0,0 l/m 0,3 km/h (0 Bft) O-NO 67 10,8 C 26,2 C 0,0 km/h (0 Bft)
10.05.2012 19:58 22,3 C 48 % 0,0 l/m 0,3 km/h (0 Bft) N 360 10,8 C 25,7 C 0,0 km/h (0 Bft)
10.05.2012 20:00 22,3 C 48 % 0,0 l/m 0,3 km/h (0 Bft) N-NW 337 10,8 C 25,3 C 0,0 km/h (0 Bft)
10.05.2012 20:02 22,1 C 49 % 0,0 l/m 0,3 km/h (0 Bft) N-NW 337 10,9 C 24,8 C 0,0 km/h (0 Bft)
10.05.2012 20:04 22,0 C 49 % 0,0 l/m 0,5 km/h (0 Bft) N-NO 22 10,8 C 24,3 C 2,7 km/h (1 Bft)
10.05.2012 20:06 21,8 C 50 % 0,0 l/m 0,6 km/h (0 Bft) N-NO 22 10,9 C 24,0 C 2,7 km/h (1 Bft)
10.05.2012 20:08 21,6 C 50 % 0,0 l/m 0,6 km/h (0 Bft) N-NO 22 10,7 C 23,5 C 1,9 km/h (1 Bft)
10.05.2012 20:10 21,6 C 51 % 0,0 l/m 0,6 km/h (0 Bft) NO 45 11,0 C 23,1 C 0,0 km/h (0 Bft)
10.05.2012 20:12 21,5 C 51 % 0,0 l/m 0,5 km/h (0 Bft) N-NW 337 10,9 C 22,7 C 0,0 km/h (0 Bft)
10.05.2012 20:14 21,3 C 51 % 0,0 l/m 0,5 km/h (0 Bft) N-NO 22 10,7 C 22,4 C 0,0 km/h (0 Bft)
10.05.2012 20:16 21,1 C 51 % 0,0 l/m 0,2 km/h (0 Bft) NO 45 10,6 C 21,9 C 0,0 km/h (0 Bft)
10.05.2012 20:18 21,1 C 52 % 0,0 l/m 0,0 km/h (0 Bft) NO 45 10,9 C 21,8 C 1,9 km/h (1 Bft)
10.05.2012 20:20 20,8 C 53 % 0,0 l/m 0,3 km/h (0 Bft) N-NO 22 10,9 C 21,4 C 1,9 km/h (1 Bft)
10.05.2012 20:22 20,6 C 54 % 0,0 l/m 0,6 km/h (0 Bft) N-NO 22 11,0 C 21,2 C 1,9 km/h (1 Bft)
10.05.2012 20:24 20,5 C 54 % 0,0 l/m 0,6 km/h (0 Bft) N-NO 22 10,9 C 21,1 C 1,6 km/h (1 Bft)
10.05.2012 20:26 20,4 C 55 % 0,0 l/m 1,0 km/h (0 Bft) N-NO 22 11,1 C 20,7 C 2,6 km/h (1 Bft)
10.05.2012 20:28 20,3 C 55 % 0,0 l/m 1,0 km/h (0 Bft) N-NO 22 11,0 C 20,5 C 2,6 km/h (1 Bft)
10.05.2012 20:30 20,1 C 55 % 0,0 l/m 0,8 km/h (0 Bft) NO 45 10,8 C 20,1 C 0,0 km/h (0 Bft)
10.05.2012 20:32 19,9 C 56 % 0,0 l/m 0,5 km/h (0 Bft) S 180 10,9 C 19,8 C 1,8 km/h (1 Bft)
10.05.2012 20:34 19,7 C 56 % 0,0 l/m 0,6 km/h (0 Bft) N-NO 22 10,7 C 19,6 C 1,8 km/h (1 Bft)
10.05.2012 20:36 19,6 C 56 % 0,0 l/m 0,3 km/h (0 Bft) NO 45 10,6 C 19,2 C 2,3 km/h (1 Bft)
10.05.2012 20:38 19,5 C 57 % 0,0 l/m 0,3 km/h (0 Bft) N-NO 22 10,8 C 18,9 C 2,3 km/h (1 Bft)
10.05.2012 20:40 19,2 C 57 % 0,0 l/m 0,5 km/h (0 Bft) NO 45 10,5 C 18,6 C 1,8 km/h (1 Bft)
10.05.2012 20:42 19,1 C 57 % 0,0 l/m 0,6 km/h (0 Bft) NO 45 10,4 C 18,3 C 1,8 km/h (1 Bft)
10.05.2012 20:44 19,0 C 57 % 0,0 l/m 0,5 km/h (0 Bft) NO 45 10,3 C 18,0 C 1,9 km/h (1 Bft)
10.05.2012 20:46 18,9 C 58 % 0,0 l/m 0,5 km/h (0 Bft) N-NO 22 10,5 C 17,8 C 1,9 km/h (1 Bft)
10.05.2012 20:48 18,7 C 58 % 0,0 l/m 0,6 km/h (0 Bft) NO 45 10,3 C 17,6 C 2,4 km/h (1 Bft)
10.05.2012 20:50 18,7 C 58 % 0,0 l/m 0,8 km/h (0 Bft) N 360 10,3 C 17,3 C 2,4 km/h (1 Bft)
10.05.2012 20:52 18,5 C 59 % 0,0 l/m 0,6 km/h (0 Bft) N-NO 22 10,3 C 17,0 C 1,8 km/h (1 Bft)
10.05.2012 20:54 18,4 C 59 % 0,0 l/m 1,1 km/h (1 Bft) NO 45 10,2 C 16,8 C 2,9 km/h (1 Bft)
10.05.2012 20:56 18,3 C 60 % 0,0 l/m 1,6 km/h (1 Bft) NO 45 10,4 C 16,6 C 3,9 km/h (1 Bft)
10.05.2012 20:58 18,3 C 60 % 0,0 l/m 1,8 km/h (1 Bft) N-NO 22 10,4 C 16,4 C 3,9 km/h (1 Bft)
10.05.2012 21:00 18,0 C 60 % 0,0 l/m 1,6 km/h (1 Bft) N-NO 22 10,1 C 16,2 C 1,8 km/h (1 Bft)
10.05.2012 21:02 18,0 C 60 % 0,0 l/m 1,6 km/h (1 Bft) NO 45 10,1 C 16,2 C 2,1 km/h (1 Bft)
10.05.2012 21:04 18,0 C 61 % 0,0 l/m 1,6 km/h (1 Bft) N-NO 22 10,4 C 16,2 C 2,4 km/h (1 Bft)
10.05.2012 21:06 17,9 C 60 % 0,0 l/m 1,4 km/h (1 Bft) N-NO 22 10,0 C 16,2 C 2,4 km/h (1 Bft)
10.05.2012 21:08 17,8 C 60 % 0,0 l/m 1,3 km/h (1 Bft) N-NO 22 9,9 C 16,2 C 2,3 km/h (1 Bft)
10.05.2012 21:10 17,7 C 61 % 0,0 l/m 1,3 km/h (1 Bft) NO 45 10,1 C 16,2 C 2,3 km/h (1 Bft)
10.05.2012 21:12 17,7 C 61 % 0,0 l/m 1,4 km/h (1 Bft) NO 45 10,1 C 16,2 C 4,2 km/h (1 Bft)
10.05.2012 21:14 17,6 C 62 % 0,0 l/m 2,3 km/h (1 Bft) NO 45 10,2 C 16,2 C 4,8 km/h (1 Bft)
10.05.2012 21:16 17,5 C 62 % 0,0 l/m 3,1 km/h (1 Bft) NO 45 10,1 C 16,0 C 4,7 km/h (1 Bft)
10.05.2012 21:18 17,4 C 63 % 0,0 l/m 3,4 km/h (1 Bft) NO 45 10,3 C 16,0 C 4,7 km/h (1 Bft)
10.05.2012 21:20 17,5 C 63 % 0,0 l/m 3,9 km/h (1 Bft) NO 45 10,4 C 15,9 C 5,3 km/h (1 Bft)
10.05.2012 21:22 17,3 C 63 % 0,0 l/m 4,2 km/h (1 Bft) N-NO 22 10,2 C 15,6 C 5,3 km/h (1 Bft)
10.05.2012 21:24 17,1 C 63 % 0,0 l/m 3,9 km/h (1 Bft) N 360 10,0 C 15,6 C 4,0 km/h (1 Bft)
10.05.2012 21:26 17,1 C 64 % 0,0 l/m 3,7 km/h (1 Bft) N-NO 22 10,2 C 15,5 C 4,0 km/h (1 Bft)
10.05.2012 21:28 17,0 C 64 % 0,0 l/m 3,7 km/h (1 Bft) NO 45 10,1 C 15,4 C 4,8 km/h (1 Bft)
10.05.2012 21:30 16,9 C 64 % 0,0 l/m 3,5 km/h (1 Bft) NO 45 10,0 C 15,4 C 4,8 km/h (1 Bft)
10.05.2012 21:32 16,8 C 63 % 0,0 l/m 3,1 km/h (1 Bft) N-NO 22 9,7 C 15,3 C 3,1 km/h (1 Bft)
10.05.2012 21:34 16,9 C 64 % 0,0 l/m 3,1 km/h (1 Bft) NO 45 10,0 C 15,3 C 3,1 km/h (1 Bft)
10.05.2012 21:36 16,9 C 64 % 0,0 l/m 2,9 km/h (1 Bft) O-SO 112 10,0 C 15,3 C 3,1 km/h (1 Bft)
10.05.2012 21:38 16,8 C 64 % 0,0 l/m 2,6 km/h (1 Bft) NO 45 10,0 C 15,3 C 3,4 km/h (1 Bft)
10.05.2012 21:40 16,9 C 64 % 0,0 l/m 2,3 km/h (1 Bft) NO 45 10,0 C 15,4 C 3,4 km/h (1 Bft)
10.05.2012 21:42 16,8 C 64 % 0,0 l/m 2,4 km/h (1 Bft) NO 45 10,0 C 15,4 C 3,4 km/h (1 Bft)
10.05.2012 21:44 16,8 C 64 % 0,0 l/m 2,4 km/h (1 Bft) NO 45 10,0 C 15,3 C 3,1 km/h (1 Bft)
10.05.2012 21:46 16,7 C 64 % 0,0 l/m 2,3 km/h (1 Bft) NO 45 9,9 C 15,3 C 2,7 km/h (1 Bft)
10.05.2012 21:48 16,7 C 63 % 0,0 l/m 2,1 km/h (1 Bft) NO 45 9,6 C 15,3 C 1,9 km/h (1 Bft)
10.05.2012 21:50 16,7 C 63 % 0,0 l/m 1,8 km/h (1 Bft) N-NO 22 9,6 C 15,3 C 1,8 km/h (1 Bft)
10.05.2012 21:52 16,7 C 63 % 0,0 l/m 1,3 km/h (1 Bft) NO 45 9,6 C 15,2 C 0,0 km/h (0 Bft)
10.05.2012 21:54 16,7 C 63 % 0,0 l/m 1,0 km/h (0 Bft) S 180 9,6 C 15,2 C 1,8 km/h (1 Bft)
10.05.2012 21:56 16,6 C 63 % 0,0 l/m 0,8 km/h (0 Bft) NO 45 9,5 C 15,2 C 1,8 km/h (1 Bft)
10.05.2012 21:58 16,6 C 63 % 0,0 l/m 0,6 km/h (0 Bft) NO 45 9,5 C 15,2 C 1,8 km/h (1 Bft)
10.05.2012 22:00 16,7 C 63 % 0,0 l/m 0,5 km/h (0 Bft) O 90 9,6 C 15,2 C 0,0 km/h (0 Bft)
10.05.2012 22:02 16,7 C 63 % 0,0 l/m 0,5 km/h (0 Bft) O-SO 112 9,6 C 15,1 C 0,0 km/h (0 Bft)
10.05.2012 22:04 16,5 C 63 % 0,0 l/m 0,5 km/h (0 Bft) NO 45 9,4 C 15,1 C 0,0 km/h (0 Bft)
10.05.2012 22:06 16,5 C 63 % 0,0 l/m 0,3 km/h (0 Bft) NO 45 9,4 C 15,0 C 0,0 km/h (0 Bft)
10.05.2012 22:08 16,5 C 64 % 0,0 l/m 0,3 km/h (0 Bft) O 90 9,7 C 15,0 C 2,6 km/h (1 Bft)
10.05.2012 22:10 16,5 C 64 % 0,0 l/m 0,3 km/h (0 Bft) S 180 9,7 C 15,0 C 0,0 km/h (0 Bft)
10.05.2012 22:12 16,4 C 64 % 0,0 l/m 0,3 km/h (0 Bft) NO 45 9,6 C 14,9 C 0,0 km/h (0 Bft)
10.05.2012 22:14 16,5 C 64 % 0,0 l/m 0,3 km/h (0 Bft) N-NO 22 9,7 C 14,9 C 0,0 km/h (0 Bft)
10.05.2012 22:16 16,4 C 64 % 0,0 l/m 0,3 km/h (0 Bft) SO 135 9,6 C 14,9 C 0,0 km/h (0 Bft)
10.05.2012 22:18 16,4 C 65 % 0,0 l/m 0,5 km/h (0 Bft) N-NO 22 9,8 C 14,8 C 3,5 km/h (1 Bft)
10.05.2012 22:20 16,3 C 64 % 0,0 l/m 0,3 km/h (0 Bft) N-NO 22 9,5 C 14,8 C 3,5 km/h (1 Bft)
10.05.2012 22:22 16,3 C 64 % 0,0 l/m 0,3 km/h (0 Bft) O 90 9,5 C 14,8 C 0,0 km/h (0 Bft)
10.05.2012 22:24 16,3 C 64 % 0,0 l/m 0,3 km/h (0 Bft) S-SO 157 9,5 C 14,7 C 0,0 km/h (0 Bft)
10.05.2012 22:26 16,2 C 64 % 0,0 l/m 0,3 km/h (0 Bft) NO 45 9,4 C 14,7 C 1,8 km/h (1 Bft)
10.05.2012 22:28 16,3 C 65 % 0,0 l/m 0,2 km/h (0 Bft) O-NO 67 9,7 C 14,7 C 1,8 km/h (1 Bft)
10.05.2012 22:30 16,1 C 65 % 0,0 l/m 0,2 km/h (0 Bft) NO 45 9,5 C 14,6 C 0,0 km/h (0 Bft)
10.05.2012 22:32 16,1 C 65 % 0,0 l/m 0,3 km/h (0 Bft) N-NO 22 9,5 C 14,6 C 1,6 km/h (1 Bft)
10.05.2012 22:34 16,0 C 65 % 0,0 l/m 0,3 km/h (0 Bft) NO 45 9,4 C 14,6 C 1,6 km/h (1 Bft)
10.05.2012 22:36 16,0 C 65 % 0,0 l/m 0,3 km/h (0 Bft) O-SO 112 9,4 C 14,5 C 0,0 km/h (0 Bft)
10.05.2012 22:38 16,0 C 65 % 0,0 l/m 0,2 km/h (0 Bft) N 360 9,4 C 14,4 C 0,0 km/h (0 Bft)
10.05.2012 22:40 15,9 C 65 % 0,0 l/m 0,2 km/h (0 Bft) N-NO 22 9,3 C 14,4 C 0,0 km/h (0 Bft)
10.05.2012 22:42 15,9 C 65 % 0,0 l/m 0,2 km/h (0 Bft) N 360 9,3 C 14,4 C 0,0 km/h (0 Bft)
10.05.2012 22:44 15,8 C 65 % 0,0 l/m 0,0 km/h (0 Bft) N 360 9,2 C 14,2 C 0,0 km/h (0 Bft)
10.05.2012 22:46 15,9 C 65 % 0,0 l/m 0,0 km/h (0 Bft) NO 45 9,3 C 14,2 C 0,0 km/h (0 Bft)
10.05.2012 22:48 15,8 C 66 % 0,0 l/m 0,2 km/h (0 Bft) N-NO 22 9,5 C 14,1 C 0,0 km/h (0 Bft)
10.05.2012 22:50 15,7 C 65 % 0,0 l/m 0,2 km/h (0 Bft) W-SW 247 9,1 C 14,1 C 1,8 km/h (1 Bft)
10.05.2012 22:52 15,7 C 66 % 0,0 l/m 0,3 km/h (0 Bft) N-NO 22 9,4 C 14,1 C 1,8 km/h (1 Bft)
10.05.2012 22:54 15,7 C 66 % 0,0 l/m 0,3 km/h (0 Bft) S 180 9,4 C 14,1 C 0,0 km/h (0 Bft)
10.05.2012 22:56 15,7 C 66 % 0,0 l/m 0,3 km/h (0 Bft) NO 45 9,4 C 14,1 C 2,1 km/h (1 Bft)
10.05.2012 22:58 15,6 C 66 % 0,0 l/m 0,6 km/h (0 Bft) SO 135 9,3 C 14,1 C 3,7 km/h (1 Bft)
10.05.2012 23:00 15,6 C 66 % 0,0 l/m 0,8 km/h (0 Bft) N 360 9,3 C 14,3 C 3,7 km/h (1 Bft)
10.05.2012 23:02 15,6 C 66 % 0,0 l/m 0,6 km/h (0 Bft) S-SO 157 9,3 C 14,3 C 0,0 km/h (0 Bft)
10.05.2012 23:04 15,6 C 66 % 0,0 l/m 0,6 km/h (0 Bft) NO 45 9,3 C 14,3 C 0,0 km/h (0 Bft)
10.05.2012 23:06 15,6 C 66 % 0,0 l/m 0,6 km/h (0 Bft) N 360 9,3 C 14,2 C 0,0 km/h (0 Bft)
10.05.2012 23:08 15,5 C 66 % 0,0 l/m 0,5 km/h (0 Bft) NO 45 9,2 C 14,1 C 0,0 km/h (0 Bft)
10.05.2012 23:10 15,5 C 66 % 0,0 l/m 0,0 km/h (0 Bft) N 360 9,2 C 14,0 C 0,0 km/h (0 Bft)
10.05.2012 23:12 15,5 C 66 % 0,0 l/m 0,0 km/h (0 Bft) N 360 9,2 C 13,9 C 0,0 km/h (0 Bft)
10.05.2012 23:14 15,5 C 66 % 0,0 l/m 0,0 km/h (0 Bft) NO 45 9,2 C 13,8 C 0,0 km/h (0 Bft)
10.05.2012 23:16 15,4 C 66 % 0,0 l/m 0,0 km/h (0 Bft) SO 135 9,1 C 13,7 C 0,0 km/h (0 Bft)
10.05.2012 23:18 15,3 C 66 % 0,0 l/m 0,0 km/h (0 Bft) N 360 9,0 C 13,6 C 0,0 km/h (0 Bft)
10.05.2012 23:20 15,3 C 66 % 0,0 l/m 0,0 km/h (0 Bft) S 180 9,0 C 13,5 C 0,0 km/h (0 Bft)
10.05.2012 23:22 15,3 C 66 % 0,0 l/m 0,0 km/h (0 Bft) NO 45 9,0 C 13,4 C 0,0 km/h (0 Bft)
10.05.2012 23:24 15,2 C 67 % 0,0 l/m 0,0 km/h (0 Bft) O-SO 112 9,1 C 13,3 C 0,0 km/h (0 Bft)
10.05.2012 23:26 15,1 C 67 % 0,0 l/m 0,0 km/h (0 Bft) N-NO 22 9,0 C 13,2 C 0,0 km/h (0 Bft)
10.05.2012 23:28 15,0 C 67 % 0,0 l/m 0,0 km/h (0 Bft) N-NO 22 8,9 C 13,1 C 0,0 km/h (0 Bft)
10.05.2012 23:30 15,1 C 67 % 0,0 l/m 0,0 km/h (0 Bft) O-SO 112 9,0 C 13,0 C 0,0 km/h (0 Bft)
10.05.2012 23:32 15,0 C 67 % 0,0 l/m 0,0 km/h (0 Bft) N 360 8,9 C 13,0 C 0,0 km/h (0 Bft)
10.05.2012 23:34 14,9 C 67 % 0,0 l/m 0,0 km/h (0 Bft) O-SO 112 8,8 C 13,0 C 0,0 km/h (0 Bft)
10.05.2012 23:36 14,9 C 67 % 0,0 l/m 0,2 km/h (0 Bft) N 360 8,8 C 13,0 C 0,0 km/h (0 Bft)
10.05.2012 23:38 14,8 C 67 % 0,0 l/m 0,2 km/h (0 Bft) N-NO 22 8,7 C 13,0 C 0,0 km/h (0 Bft)
10.05.2012 23:40 14,9 C 67 % 0,0 l/m 0,2 km/h (0 Bft) NO 45 8,8 C 13,0 C 0,0 km/h (0 Bft)
10.05.2012 23:42 14,9 C 68 % 0,0 l/m 0,3 km/h (0 Bft) SO 135 9,0 C 13,0 C 2,7 km/h (1 Bft)
10.05.2012 23:44 14,8 C 67 % 0,0 l/m 0,6 km/h (0 Bft) S-SW 202 8,7 C 13,1 C 2,7 km/h (1 Bft)
10.05.2012 23:46 14,9 C 67 % 0,0 l/m 0,6 km/h (0 Bft) W-SW 247 8,8 C 13,2 C 0,0 km/h (0 Bft)
10.05.2012 23:48 14,7 C 67 % 0,0 l/m 0,6 km/h (0 Bft) SO 135 8,6 C 13,1 C 0,0 km/h (0 Bft)
10.05.2012 23:50 14,5 C 68 % 0,0 l/m 0,6 km/h (0 Bft) W-SW 247 8,7 C 12,9 C 0,0 km/h (0 Bft)
10.05.2012 23:52 14,4 C 68 % 0,0 l/m 0,6 km/h (0 Bft) NO 45 8,6 C 12,8 C 0,0 km/h (0 Bft)
10.05.2012 23:54 14,3 C 68 % 0,0 l/m 0,2 km/h (0 Bft) SO 135 8,5 C 12,6 C 0,0 km/h (0 Bft)
10.05.2012 23:56 14,3 C 69 % 0,0 l/m 0,2 km/h (0 Bft) NO 45 8,7 C 12,5 C 1,9 km/h (1 Bft)
10.05.2012 23:58 14,2 C 69 % 0,0 l/m 0,2 km/h (0 Bft) N 360 8,6 C 12,4 C 1,9 km/h (1 Bft)
_ Min-Zeit 04:50 13:44 - 00:00 - - 04:50 04:46 00:00
Minimum _ 10,8 C 29 % - 0,0 km/h (0 Bft) - - 7,5 C 9,0 C 0,0 km/h (0 Bft)
_ Max-Zeit 13:24 05:40 00:00 13:34 - - 08:12 17:18 13:16
Maximum _ 29,7 C 82 % 0,0 l/m 7,1 km/h
SO (2 Bft)
- - 13,4 C 30,8 C 15,4 km/h
S (3 Bft)
Durchschnitt _ 20,7 C 55 % #0,0 l/m 1,8 km/h (1 Bft) S - 10,2 C 20,7 C 2,9 km/h (1 Bft)